Time,TemperatureF,DewpointF,PressureIn,WindDirection,WindDirectionDegrees,WindSpeedMPH,WindSpeedGustMPH,Humidity,HourlyPrecipIn,Conditions,Clouds,dailyrainin,SolarRadiationWatts/m^2,SoftwareType,DateUTC
2013-02-12 00:00:00,28.4,24.5,30.12,West,281,8.0,8.0,85,0.00,,,0.00,0,Wunderground v.1.15,2013-02-12 06:00:00,
2013-02-12 00:04:00,28.4,24.5,30.13,West,280,10.0,12.0,85,0.00,,,0.00,0,Wunderground v.1.15,2013-02-12 06:04:00,
2013-02-12 00:05:00,28.4,24.5,30.13,WNW,288,11.0,12.0,85,0.00,,,0.00,0,Wunderground v.1.15,2013-02-12 06:05:00,
2013-02-12 00:06:00,28.4,24.2,30.13,West,276,7.0,12.0,84,0.00,,,0.00,0,Wunderground v.1.15,2013-02-12 06:06:00,
2013-02-12 00:10:00,28.4,24.5,30.13,West,281,10.0,10.0,85,0.00,,,0.00,0,Wunderground v.1.15,2013-02-12 06:10:00,
2013-02-12 00:11:00,28.4,24.5,30.13,WNW,293,8.0,10.0,85,0.00,,,0.00,0,Wunderground v.1.15,2013-02-12 06:11:00,
2013-02-12 00:15:00,28.4,24.2,30.13,WNW,296,8.0,12.0,84,0.00,,,0.00,0,Wunderground v.1.15,2013-02-12 06:15:00,
2013-02-12 00:16:00,28.5,24.3,30.13,WNW,288,11.0,12.0,84,0.00,,,0.00,0,Wunderground v.1.15,2013-02-12 06:16:00,
2013-02-12 00:18:00,28.5,24.3,30.13,WNW,298,8.0,12.0,84,0.00,,,0.00,0,Wunderground v.1.15,2013-02-12 06:18:00,
2013-02-12 00:20:00,28.5,24.3,30.13,WNW,298,10.0,10.0,84,0.00,,,0.00,0,Wunderground v.1.15,2013-02-12 06:20:00,
2013-02-12 00:22:00,28.5,24.3,30.13,WNW,294,8.0,11.0,84,0.00,,,0.00,0,Wunderground v.1.15,2013-02-12 06:22:00,
2013-02-12 00:23:00,28.5,24.3,30.13,WNW,291,11.0,11.0,84,0.00,,,0.00,0,Wunderground v.1.15,2013-02-12 06:23:00,
2013-02-12 00:24:00,28.5,24.3,30.13,WNW,288,9.0,11.0,84,0.00,,,0.00,0,Wunderground v.1.15,2013-02-12 06:24:00,
2013-02-12 00:27:00,28.5,24.6,30.13,West,279,6.0,11.0,85,0.00,,,0.00,0,Wunderground v.1.15,2013-02-12 06:27:00,
2013-02-12 00:30:00,28.6,24.7,30.13,WNW,289,4.0,8.0,85,0.00,,,0.00,0,Wunderground v.1.15,2013-02-12 06:30:00,
2013-02-12 00:32:00,28.6,24.7,30.13,West,271,10.0,10.0,85,0.00,,,0.00,0,Wunderground v.1.15,2013-02-12 06:32:00,
2013-02-12 00:34:00,28.6,24.7,30.13,West,269,7.0,10.0,85,0.00,,,0.00,0,Wunderground v.1.15,2013-02-12 06:34:00,
2013-02-12 00:35:00,28.6,24.7,30.13,West,273,10.0,10.0,85,0.00,,,0.00,0,Wunderground v.1.15,2013-02-12 06:35:00,
2013-02-12 00:38:00,28.6,24.7,30.13,West,267,8.0,10.0,85,0.00,,,0.00,0,Wunderground v.1.15,2013-02-12 06:38:00,
2013-02-12 00:40:00,28.6,24.7,30.13,West,276,7.0,8.0,85,0.00,,,0.00,0,Wunderground v.1.15,2013-02-12 06:40:00,
2013-02-12 00:41:00,28.5,24.6,30.13,West,281,8.0,8.0,85,0.00,,,0.00,0,Wunderground v.1.15,2013-02-12 06:41:00,
2013-02-12 00:43:00,28.6,24.7,30.13,West,277,7.0,8.0,85,0.00,,,0.00,0,Wunderground v.1.15,2013-02-12 06:43:00,
2013-02-12 00:44:00,28.5,24.6,30.13,WNW,283,6.0,8.0,85,0.00,,,0.00,0,Wunderground v.1.15,2013-02-12 06:44:00,
2013-02-12 00:47:00,28.5,24.6,30.13,WNW,290,9.0,9.0,85,0.00,,,0.00,0,Wunderground v.1.15,2013-02-12 06:47:00,
2013-02-12 00:49:00,28.6,24.7,30.14,West,278,7.0,9.0,85,0.00,,,0.00,0,Wunderground v.1.15,2013-02-12 06:49:00,
2013-02-12 00:52:00,28.6,24.7,30.13,West,272,7.0,8.0,85,0.00,,,0.00,0,Wunderground v.1.15,2013-02-12 06:52:00,
2013-02-12 00:54:00,28.6,24.7,30.13,WNW,286,6.0,8.0,85,0.00,,,0.00,0,Wunderground v.1.15,2013-02-12 06:54:00,
2013-02-12 00:56:00,28.6,24.7,30.14,WNW,282,9.0,9.0,85,0.00,,,0.00,0,Wunderground v.1.15,2013-02-12 06:56:00,
2013-02-12 00:58:00,28.6,24.7,30.14,West,272,7.0,9.0,85,0.00,,,0.00,0,Wunderground v.1.15,2013-02-12 06:58:00,
2013-02-12 00:59:00,28.6,24.7,30.14,West,281,6.0,9.0,85,0.00,,,0.00,0,Wunderground v.1.15,2013-02-12 06:59:00,
2013-02-12 01:03:00,28.6,24.9,30.14,WNW,291,6.0,7.0,86,0.00,,,0.00,0,Wunderground v.1.15,2013-02-12 07:03:00,
2013-02-12 01:04:00,28.6,24.9,30.14,WNW,293,5.0,7.0,86,0.00,,,0.00,0,Wunderground v.1.15,2013-02-12 07:04:00,
2013-02-12 01:07:00,28.6,24.9,30.13,WNW,292,7.0,10.0,86,0.00,,,0.00,0,Wunderground v.1.15,2013-02-12 07:07:00,
2013-02-12 01:09:00,28.6,24.9,30.13,WNW,288,8.0,10.0,86,0.00,,,0.00,0,Wunderground v.1.15,2013-02-12 07:09:00,
2013-02-12 01:13:00,28.6,24.7,30.13,WNW,300,10.0,10.0,85,0.00,,,0.00,0,Wunderground v.1.15,2013-02-12 07:13:00,
2013-02-12 01:17:00,28.5,24.6,30.13,NW,306,9.0,11.0,85,0.00,,,0.00,0,Wunderground v.1.15,2013-02-12 07:17:00,
2013-02-12 01:18:00,28.4,24.5,30.13,WNW,302,11.0,11.0,85,0.00,,,0.00,0,Wunderground v.1.15,2013-02-12 07:18:00,
2013-02-12 01:21:00,28.4,24.5,30.13,WNW,302,11.0,11.0,85,0.00,,,0.00,0,Wunderground v.1.15,2013-02-12 07:21:00,
2013-02-12 01:22:00,28.3,24.1,30.13,NW,308,8.0,11.0,84,0.00,,,0.00,0,Wunderground v.1.15,2013-02-12 07:22:00,
2013-02-12 01:23:00,28.3,24.1,30.13,NW,308,9.0,11.0,84,0.00,,,0.00,0,Wunderground v.1.15,2013-02-12 07:23:00,
2013-02-12 01:27:00,28.2,24.0,30.13,NW,307,10.0,11.0,84,0.00,,,0.00,0,Wunderground v.1.15,2013-02-12 07:27:00,
2013-02-12 01:30:00,28.2,24.0,30.13,NW,309,8.0,9.0,84,0.00,,,0.00,0,Wunderground v.1.15,2013-02-12 07:30:00,
2013-02-12 01:32:00,28.1,24.2,30.13,NW,306,7.0,10.0,85,0.00,,,0.00,0,Wunderground v.1.15,2013-02-12 07:32:00,
2013-02-12 01:37:00,28.1,23.9,30.13,NW,309,9.0,10.0,84,0.00,,,0.00,0,Wunderground v.1.15,2013-02-12 07:37:00,
2013-02-12 01:38:00,28.1,23.9,30.13,NW,305,10.0,10.0,84,0.00,,,0.00,0,Wunderground v.1.15,2013-02-12 07:38:00,
2013-02-12 01:41:00,28.1,24.2,30.13,NW,313,8.0,9.0,85,0.00,,,0.00,0,Wunderground v.1.15,2013-02-12 07:41:00,
2013-02-12 01:42:00,28.0,24.1,30.13,WNW,300,9.0,9.0,85,0.00,,,0.00,0,Wunderground v.1.15,2013-02-12 07:42:00,
2013-02-12 01:46:00,28.0,23.8,30.13,WNW,297,8.0,11.0,84,0.00,,,0.00,0,Wunderground v.1.15,2013-02-12 07:46:00,
2013-02-12 01:48:00,28.0,23.8,30.13,WNW,301,10.0,11.0,84,0.00,,,0.00,0,Wunderground v.1.15,2013-02-12 07:48:00,
2013-02-12 01:49:00,28.0,23.8,30.13,NW,304,8.0,11.0,84,0.00,,,0.00,0,Wunderground v.1.15,2013-02-12 07:49:00,
2013-02-12 01:51:00,28.0,23.8,30.13,NW,306,10.0,10.0,84,0.00,,,0.00,0,Wunderground v.1.15,2013-02-12 07:51:00,
2013-02-12 01:54:00,28.0,23.8,30.13,WNW,294,7.0,11.0,84,0.00,,,0.00,0,Wunderground v.1.15,2013-02-12 07:54:00,
2013-02-12 01:55:00,28.0,23.8,30.13,NW,304,8.0,11.0,84,0.00,,,0.00,0,Wunderground v.1.15,2013-02-12 07:55:00,
2013-02-12 01:57:00,28.0,23.8,30.13,WNW,300,8.0,11.0,84,0.00,,,0.00,0,Wunderground v.1.15,2013-02-12 07:57:00,
2013-02-12 01:59:00,28.0,23.8,30.13,NW,304,9.0,11.0,84,0.00,,,0.00,0,Wunderground v.1.15,2013-02-12 07:59:00,
2013-02-12 02:00:00,28.0,23.8,30.13,NW,310,10.0,10.0,84,0.00,,,0.00,0,Wunderground v.1.15,2013-02-12 08:00:00,
2013-02-12 02:02:00,28.0,23.8,30.13,NW,312,10.0,10.0,84,0.00,,,0.00,0,Wunderground v.1.15,2013-02-12 08:02:00,
2013-02-12 02:04:00,28.0,23.8,30.13,WNW,300,10.0,11.0,84,0.00,,,0.00,0,Wunderground v.1.15,2013-02-12 08:04:00,
2013-02-12 02:06:00,28.0,23.8,30.13,WNW,296,10.0,11.0,84,0.00,,,0.00,0,Wunderground v.1.15,2013-02-12 08:06:00,
2013-02-12 02:07:00,28.0,23.8,30.13,WNW,293,7.0,11.0,84,0.00,,,0.00,0,Wunderground v.1.15,2013-02-12 08:07:00,
2013-02-12 02:09:00,28.0,23.8,30.13,WNW,302,9.0,11.0,84,0.00,,,0.00,0,Wunderground v.1.15,2013-02-12 08:09:00,
2013-02-12 02:10:00,28.0,23.8,30.13,NW,304,9.0,9.0,84,0.00,,,0.00,0,Wunderground v.1.15,2013-02-12 08:10:00,
2013-02-12 02:12:00,28.0,23.8,30.13,WNW,294,7.0,10.0,84,0.00,,,0.00,0,Wunderground v.1.15,2013-02-12 08:12:00,
2013-02-12 02:15:00,28.0,23.8,30.13,WNW,290,10.0,12.0,84,0.00,,,0.00,0,Wunderground v.1.15,2013-02-12 08:15:00,
2013-02-12 02:17:00,28.0,23.8,30.13,WNW,294,9.0,12.0,84,0.00,,,0.00,0,Wunderground v.1.15,2013-02-12 08:17:00,
2013-02-12 02:19:00,28.0,23.8,30.13,WNW,296,6.0,12.0,84,0.00,,,0.00,0,Wunderground v.1.15,2013-02-12 08:19:00,
2013-02-12 02:21:00,28.0,23.8,30.13,WNW,298,10.0,10.0,84,0.00,,,0.00,0,Wunderground v.1.15,2013-02-12 08:21:00,
2013-02-12 02:22:00,28.0,23.8,30.13,WNW,300,10.0,10.0,84,0.00,,,0.00,0,Wunderground v.1.15,2013-02-12 08:22:00,
2013-02-12 02:25:00,28.0,23.8,30.13,NW,304,7.0,12.0,84,0.00,,,0.00,0,Wunderground v.1.15,2013-02-12 08:25:00,
2013-02-12 02:26:00,28.0,23.8,30.13,NW,311,7.0,12.0,84,0.00,,,0.00,0,Wunderground v.1.15,2013-02-12 08:26:00,
2013-02-12 02:28:00,28.0,24.1,30.13,WNW,300,9.0,12.0,85,0.00,,,0.00,0,Wunderground v.1.15,2013-02-12 08:28:00,
2013-02-12 02:31:00,28.0,23.8,30.13,WNW,293,11.0,11.0,84,0.00,,,0.00,0,Wunderground v.1.15,2013-02-12 08:31:00,
2013-02-12 02:33:00,27.9,23.7,30.14,WNW,300,8.0,11.0,84,0.00,,,0.00,0,Wunderground v.1.15,2013-02-12 08:33:00,
2013-02-12 02:35:00,27.9,23.7,30.14,WNW,287,6.0,11.0,84,0.00,,,0.00,0,Wunderground v.1.15,2013-02-12 08:35:00,
2013-02-12 02:37:00,28.0,24.1,30.14,WNW,290,7.0,11.0,85,0.00,,,0.00,0,Wunderground v.1.15,2013-02-12 08:37:00,
2013-02-12 02:40:00,28.0,24.1,30.14,WNW,295,10.0,10.0,85,0.00,,,0.00,0,Wunderground v.1.15,2013-02-12 08:40:00,
2013-02-12 02:41:00,27.9,24.0,30.14,WNW,292,11.0,11.0,85,0.00,,,0.00,0,Wunderground v.1.15,2013-02-12 08:41:00,
2013-02-12 02:45:00,27.9,23.7,30.14,WNW,286,7.0,15.0,84,0.00,,,0.00,0,Wunderground v.1.15,2013-02-12 08:45:00,
2013-02-12 02:46:00,27.9,23.7,30.14,WNW,284,9.0,15.0,84,0.00,,,0.00,0,Wunderground v.1.15,2013-02-12 08:46:00,
2013-02-12 02:51:00,27.8,23.3,30.14,WNW,301,9.0,10.0,83,0.00,,,0.00,0,Wunderground v.1.15,2013-02-12 08:51:00,
2013-02-12 02:52:00,27.8,23.3,30.14,WNW,292,8.0,10.0,83,0.00,,,0.00,0,Wunderground v.1.15,2013-02-12 08:52:00,
2013-02-12 02:53:00,27.8,23.3,30.14,West,278,8.0,10.0,83,0.00,,,0.00,0,Wunderground v.1.15,2013-02-12 08:53:00,
2013-02-12 02:56:00,27.8,23.6,30.13,West,280,6.0,10.0,84,0.00,,,0.00,0,Wunderground v.1.15,2013-02-12 08:56:00,
2013-02-12 02:57:00,27.8,23.6,30.13,West,275,7.0,10.0,84,0.00,,,0.00,0,Wunderground v.1.15,2013-02-12 08:57:00,
2013-02-12 02:59:00,27.8,23.6,30.13,West,279,6.0,10.0,84,0.00,,,0.00,0,Wunderground v.1.15,2013-02-12 08:59:00,
2013-02-12 03:01:00,27.8,23.6,30.13,WNW,285,7.0,11.0,84,0.00,,,0.00,0,Wunderground v.1.15,2013-02-12 09:01:00,
2013-02-12 03:02:00,27.8,23.6,30.13,WNW,286,6.0,11.0,84,0.00,,,0.00,0,Wunderground v.1.15,2013-02-12 09:02:00,
2013-02-12 03:04:00,27.8,23.6,30.13,West,279,9.0,11.0,84,0.00,,,0.00,0,Wunderground v.1.15,2013-02-12 09:04:00,
2013-02-12 03:05:00,27.8,23.6,30.13,WNW,286,7.0,11.0,84,0.00,,,0.00,0,Wunderground v.1.15,2013-02-12 09:05:00,
2013-02-12 03:06:00,27.7,23.2,30.13,WNW,283,5.0,11.0,83,0.00,,,0.00,0,Wunderground v.1.15,2013-02-12 09:06:00,
2013-02-12 03:07:00,27.8,23.3,30.13,WNW,284,6.0,11.0,83,0.00,,,0.00,0,Wunderground v.1.15,2013-02-12 09:07:00,
2013-02-12 03:10:00,27.7,23.5,30.13,West,281,7.0,11.0,84,0.00,,,0.00,0,Wunderground v.1.15,2013-02-12 09:10:00,
2013-02-12 03:12:00,27.7,23.5,30.12,West,279,6.0,7.0,84,0.00,,,0.00,0,Wunderground v.1.15,2013-02-12 09:12:00,
2013-02-12 03:13:00,27.7,23.5,30.12,West,279,6.0,7.0,84,0.00,,,0.00,0,Wunderground v.1.15,2013-02-12 09:13:00,
2013-02-12 03:15:00,27.7,23.5,30.12,West,277,6.0,7.0,84,0.00,,,0.00,0,Wunderground v.1.15,2013-02-12 09:15:00,
2013-02-12 03:16:00,27.7,23.5,30.12,West,279,6.0,7.0,84,0.00,,,0.00,0,Wunderground v.1.15,2013-02-12 09:16:00,
2013-02-12 03:20:00,27.6,23.7,30.12,West,275,6.0,6.0,85,0.00,,,0.00,0,Wunderground v.1.15,2013-02-12 09:20:00,
2013-02-12 03:21:00,27.6,23.7,30.12,West,270,6.0,6.0,85,0.00,,,0.00,0,Wunderground v.1.15,2013-02-12 09:21:00,
2013-02-12 03:23:00,27.6,23.7,30.12,West,263,7.0,7.0,85,0.00,,,0.00,0,Wunderground v.1.15,2013-02-12 09:23:00,
2013-02-12 03:26:00,27.4,23.5,30.11,West,266,7.0,8.0,85,0.00,,,0.00,0,Wunderground v.1.15,2013-02-12 09:26:00,
2013-02-12 03:27:00,27.4,23.5,30.11,West,269,8.0,8.0,85,0.00,,,0.00,0,Wunderground v.1.15,2013-02-12 09:27:00,
2013-02-12 03:28:00,27.2,23.3,30.11,West,266,6.0,8.0,85,0.00,,,0.00,0,Wunderground v.1.15,2013-02-12 09:28:00,
2013-02-12 03:31:00,27.1,23.2,30.11,West,273,6.0,7.0,85,0.00,,,0.00,0,Wunderground v.1.15,2013-02-12 09:31:00,
2013-02-12 03:33:00,27.0,23.1,30.11,West,271,7.0,7.0,85,0.00,,,0.00,0,Wunderground v.1.15,2013-02-12 09:33:00,
2013-02-12 03:34:00,26.9,23.0,30.12,West,271,5.0,7.0,85,0.00,,,0.00,0,Wunderground v.1.15,2013-02-12 09:34:00,
2013-02-12 03:37:00,26.7,23.1,30.11,West,275,4.0,7.0,86,0.00,,,0.00,0,Wunderground v.1.15,2013-02-12 09:37:00,
2013-02-12 03:40:00,26.6,23.0,30.11,West,275,5.0,7.0,86,0.00,,,0.00,0,Wunderground v.1.15,2013-02-12 09:40:00,
2013-02-12 03:43:00,26.5,22.9,30.11,West,277,4.0,6.0,86,0.00,,,0.00,0,Wunderground v.1.15,2013-02-12 09:43:00,
2013-02-12 03:45:00,26.3,23.0,30.11,West,278,3.0,6.0,87,0.00,,,0.00,0,Wunderground v.1.15,2013-02-12 09:45:00,
2013-02-12 03:49:00,26.1,22.8,30.11,West,278,3.0,6.0,87,0.00,,,0.00,0,Wunderground v.1.15,2013-02-12 09:49:00,
2013-02-12 03:50:00,26.0,22.7,30.10,West,278,2.0,4.0,87,0.00,,,0.00,0,Wunderground v.1.15,2013-02-12 09:50:00,
2013-02-12 03:52:00,25.9,22.6,30.10,West,278,3.0,4.0,87,0.00,,,0.00,0,Wunderground v.1.15,2013-02-12 09:52:00,
2013-02-12 03:55:00,25.7,22.6,30.10,West,278,2.0,4.0,88,0.00,,,0.00,0,Wunderground v.1.15,2013-02-12 09:55:00,
2013-02-12 03:57:00,25.7,22.6,30.10,West,278,2.0,4.0,88,0.00,,,0.00,0,Wunderground v.1.15,2013-02-12 09:57:00,
2013-02-12 03:58:00,25.6,22.5,30.10,West,278,2.0,4.0,88,0.00,,,0.00,0,Wunderground v.1.15,2013-02-12 09:58:00,
2013-02-12 04:01:00,25.5,22.4,30.10,West,278,2.0,3.0,88,0.00,,,0.00,0,Wunderground v.1.15,2013-02-12 10:01:00,
2013-02-12 04:02:00,25.4,22.3,30.09,West,278,3.0,3.0,88,0.00,,,0.00,0,Wunderground v.1.15,2013-02-12 10:02:00,
2013-02-12 04:03:00,25.4,22.3,30.09,West,278,3.0,3.0,88,0.00,,,0.00,0,Wunderground v.1.15,2013-02-12 10:03:00,
2013-02-12 04:04:00,25.4,22.3,30.09,West,278,3.0,3.0,88,0.00,,,0.00,0,Wunderground v.1.15,2013-02-12 10:04:00,
2013-02-12 04:06:00,25.4,22.3,30.09,WNW,284,2.0,3.0,88,0.00,,,0.00,0,Wunderground v.1.15,2013-02-12 10:06:00,
2013-02-12 04:08:00,25.4,22.6,30.09,WNW,284,1.0,3.0,89,0.00,,,0.00,0,Wunderground v.1.15,2013-02-12 10:08:00,
2013-02-12 04:09:00,25.3,22.5,30.09,WNW,284,2.0,3.0,89,0.00,,,0.00,0,Wunderground v.1.15,2013-02-12 10:09:00,
2013-02-12 04:10:00,25.3,22.5,30.09,WNW,284,1.0,2.0,89,0.00,,,0.00,0,Wunderground v.1.15,2013-02-12 10:10:00,
2013-02-12 04:13:00,25.3,22.5,30.09,WNW,284,0.0,2.0,89,0.00,,,0.00,0,Wunderground v.1.15,2013-02-12 10:13:00,
2013-02-12 04:14:00,25.3,22.5,30.09,WNW,284,0.0,2.0,89,0.00,,,0.00,0,Wunderground v.1.15,2013-02-12 10:14:00,
2013-02-12 04:15:00,25.2,22.4,30.09,WNW,284,0.0,2.0,89,0.00,,,0.00,0,Wunderground v.1.15,2013-02-12 10:15:00,
2013-02-12 04:18:00,25.1,22.3,30.09,WNW,284,0.0,2.0,89,0.00,,,0.00,0,Wunderground v.1.15,2013-02-12 10:18:00,
2013-02-12 04:19:00,25.0,22.2,30.09,WNW,284,0.0,2.0,89,0.00,,,0.00,0,Wunderground v.1.15,2013-02-12 10:19:00,
2013-02-12 04:20:00,25.0,22.2,30.09,WNW,284,0.0,0.0,89,0.00,,,0.00,0,Wunderground v.1.15,2013-02-12 10:20:00,
2013-02-12 04:21:00,24.9,22.1,30.09,WNW,284,0.0,0.0,89,0.00,,,0.00,0,Wunderground v.1.15,2013-02-12 10:21:00,
2013-02-12 04:23:00,24.7,21.9,30.09,WNW,284,0.0,0.0,89,0.00,,,0.00,0,Wunderground v.1.15,2013-02-12 10:23:00,
2013-02-12 04:24:00,24.5,22.0,30.09,WNW,284,0.0,0.0,90,0.00,,,0.00,0,Wunderground v.1.15,2013-02-12 10:24:00,
2013-02-12 04:26:00,24.4,21.9,30.09,WNW,284,0.0,0.0,90,0.00,,,0.00,0,Wunderground v.1.15,2013-02-12 10:26:00,
2013-02-12 04:27:00,24.3,21.8,30.09,WNW,284,0.0,0.0,90,0.00,,,0.00,0,Wunderground v.1.15,2013-02-12 10:27:00,
2013-02-12 04:29:00,24.2,21.7,30.09,WNW,284,0.0,0.0,90,0.00,,,0.00,0,Wunderground v.1.15,2013-02-12 10:29:00,
2013-02-12 04:33:00,24.1,21.6,30.09,WNW,284,0.0,0.0,90,0.00,,,0.00,0,Wunderground v.1.15,2013-02-12 10:33:00,
2013-02-12 04:34:00,24.0,21.8,30.09,WNW,284,0.0,0.0,91,0.00,,,0.00,0,Wunderground v.1.15,2013-02-12 10:34:00,
2013-02-12 04:35:00,24.1,21.9,30.09,WNW,284,0.0,0.0,91,0.00,,,0.00,0,Wunderground v.1.15,2013-02-12 10:35:00,
2013-02-12 04:38:00,23.8,21.3,30.08,WNW,284,0.0,0.0,90,0.00,,,0.00,0,Wunderground v.1.15,2013-02-12 10:38:00,
2013-02-12 04:39:00,23.5,21.0,30.08,WNW,284,0.0,0.0,90,0.00,,,0.00,0,Wunderground v.1.15,2013-02-12 10:39:00,
2013-02-12 04:40:00,23.5,21.0,30.08,WNW,284,0.0,0.0,90,0.00,,,0.00,0,Wunderground v.1.15,2013-02-12 10:40:00,
2013-02-12 04:44:00,23.0,20.5,30.08,WNW,284,0.0,0.0,90,0.00,,,0.00,0,Wunderground v.1.15,2013-02-12 10:44:00,
2013-02-12 04:46:00,23.0,20.8,30.08,WNW,284,0.0,0.0,91,0.00,,,0.00,0,Wunderground v.1.15,2013-02-12 10:46:00,
2013-02-12 04:48:00,23.0,20.8,30.08,WNW,284,0.0,0.0,91,0.00,,,0.00,0,Wunderground v.1.15,2013-02-12 10:48:00,
2013-02-12 04:49:00,22.9,20.7,30.08,WNW,284,0.0,0.0,91,0.00,,,0.00,0,Wunderground v.1.15,2013-02-12 10:49:00,
2013-02-12 04:51:00,22.9,20.7,30.08,WNW,284,0.0,0.0,91,0.00,,,0.00,0,Wunderground v.1.15,2013-02-12 10:51:00,
2013-02-12 04:54:00,23.0,21.0,30.07,WNW,284,0.0,0.0,92,0.00,,,0.00,0,Wunderground v.1.15,2013-02-12 10:54:00,
2013-02-12 04:55:00,23.0,21.0,30.07,WNW,284,0.0,0.0,92,0.00,,,0.00,0,Wunderground v.1.15,2013-02-12 10:55:00,
2013-02-12 04:56:00,23.1,21.1,30.07,WNW,284,0.0,0.0,92,0.00,,,0.00,0,Wunderground v.1.15,2013-02-12 10:56:00,
2013-02-12 04:57:00,23.1,21.1,30.07,WNW,284,0.0,0.0,92,0.00,,,0.00,0,Wunderground v.1.15,2013-02-12 10:57:00,
2013-02-12 04:59:00,23.3,21.3,30.07,WNW,284,0.0,0.0,92,0.00,,,0.00,0,Wunderground v.1.15,2013-02-12 10:59:00,
2013-02-12 05:01:00,23.0,20.8,30.07,WNW,284,0.0,0.0,91,0.00,,,0.00,0,Wunderground v.1.15,2013-02-12 11:01:00,
2013-02-12 05:03:00,22.8,20.6,30.07,WNW,284,0.0,0.0,91,0.00,,,0.00,0,Wunderground v.1.15,2013-02-12 11:03:00,
2013-02-12 05:04:00,22.7,20.5,30.07,WNW,284,0.0,0.0,91,0.00,,,0.00,0,Wunderground v.1.15,2013-02-12 11:04:00,
2013-02-12 05:06:00,22.5,20.3,30.07,WNW,284,0.0,0.0,91,0.00,,,0.00,0,Wunderground v.1.15,2013-02-12 11:06:00,
2013-02-12 05:07:00,22.5,20.3,30.07,WNW,284,0.0,0.0,91,0.00,,,0.00,0,Wunderground v.1.15,2013-02-12 11:07:00,
2013-02-12 05:08:00,22.6,20.6,30.07,WNW,284,0.0,0.0,92,0.00,,,0.00,0,Wunderground v.1.15,2013-02-12 11:08:00,
2013-02-12 05:10:00,22.6,20.6,30.08,WNW,284,0.0,0.0,92,0.00,,,0.00,0,Wunderground v.1.15,2013-02-12 11:10:00,
2013-02-12 05:11:00,22.7,20.7,30.07,WNW,284,0.0,0.0,92,0.00,,,0.00,0,Wunderground v.1.15,2013-02-12 11:11:00,
2013-02-12 05:12:00,22.7,20.7,30.07,WNW,284,0.0,0.0,92,0.00,,,0.00,0,Wunderground v.1.15,2013-02-12 11:12:00,
2013-02-12 05:13:00,22.7,20.7,30.07,WNW,284,0.0,0.0,92,0.00,,,0.00,0,Wunderground v.1.15,2013-02-12 11:13:00,
2013-02-12 05:15:00,22.6,20.6,30.08,WNW,284,0.0,0.0,92,0.00,,,0.00,0,Wunderground v.1.15,2013-02-12 11:15:00,
2013-02-12 05:18:00,22.6,20.6,30.08,WNW,284,0.0,0.0,92,0.00,,,0.00,0,Wunderground v.1.15,2013-02-12 11:18:00,
2013-02-12 05:19:00,22.5,20.5,30.08,WNW,284,0.0,0.0,92,0.00,,,0.00,0,Wunderground v.1.15,2013-02-12 11:19:00,
2013-02-12 05:23:00,22.5,20.5,30.08,WNW,284,0.0,0.0,92,0.00,,,0.00,0,Wunderground v.1.15,2013-02-12 11:23:00,
2013-02-12 05:24:00,22.5,20.5,30.08,WNW,284,0.0,0.0,92,0.00,,,0.00,0,Wunderground v.1.15,2013-02-12 11:24:00,
2013-02-12 05:25:00,22.4,20.4,30.08,WNW,284,0.0,0.0,92,0.00,,,0.00,0,Wunderground v.1.15,2013-02-12 11:25:00,
2013-02-12 05:28:00,22.4,20.4,30.08,WNW,284,0.0,0.0,92,0.00,,,0.00,0,Wunderground v.1.15,2013-02-12 11:28:00,
2013-02-12 05:29:00,22.4,20.4,30.08,WNW,284,0.0,0.0,92,0.00,,,0.00,0,Wunderground v.1.15,2013-02-12 11:29:00,
2013-02-12 05:30:00,22.3,20.3,30.08,WNW,284,0.0,0.0,92,0.00,,,0.00,0,Wunderground v.1.15,2013-02-12 11:30:00,
2013-02-12 05:31:00,22.3,20.3,30.08,WNW,284,0.0,0.0,92,0.00,,,0.00,0,Wunderground v.1.15,2013-02-12 11:31:00,
2013-02-12 05:33:00,22.2,20.2,30.08,WNW,284,0.0,0.0,92,0.00,,,0.00,0,Wunderground v.1.15,2013-02-12 11:33:00,
2013-02-12 05:34:00,22.2,20.2,30.08,WNW,284,0.0,0.0,92,0.00,,,0.00,0,Wunderground v.1.15,2013-02-12 11:34:00,
2013-02-12 05:36:00,22.2,20.2,30.08,WNW,284,0.0,0.0,92,0.00,,,0.00,0,Wunderground v.1.15,2013-02-12 11:36:00,
2013-02-12 05:37:00,22.2,20.2,30.08,WNW,284,0.0,0.0,92,0.00,,,0.00,0,Wunderground v.1.15,2013-02-12 11:37:00,
2013-02-12 05:39:00,22.1,20.4,30.08,WNW,284,0.0,0.0,93,0.00,,,0.00,0,Wunderground v.1.15,2013-02-12 11:39:00,
2013-02-12 05:41:00,22.1,20.4,30.08,WNW,284,0.0,0.0,93,0.00,,,0.00,0,Wunderground v.1.15,2013-02-12 11:41:00,
2013-02-12 05:43:00,22.1,20.4,30.08,WNW,284,0.0,0.0,93,0.00,,,0.00,0,Wunderground v.1.15,2013-02-12 11:43:00,
2013-02-12 05:46:00,22.1,20.4,30.09,WNW,284,0.0,0.0,93,0.00,,,0.00,0,Wunderground v.1.15,2013-02-12 11:46:00,
2013-02-12 05:47:00,22.1,20.4,30.09,WNW,284,0.0,0.0,93,0.00,,,0.00,0,Wunderground v.1.15,2013-02-12 11:47:00,
2013-02-12 05:49:00,22.1,20.4,30.10,WSW,251,3.0,3.0,93,0.00,,,0.00,0,Wunderground v.1.15,2013-02-12 11:49:00,
2013-02-12 05:51:00,22.2,20.5,30.09,SW,215,4.0,4.0,93,0.00,,,0.00,0,Wunderground v.1.15,2013-02-12 11:51:00,
2013-02-12 05:53:00,22.4,20.7,30.09,SSW,205,4.0,4.0,93,0.00,,,0.00,0,Wunderground v.1.15,2013-02-12 11:53:00,
2013-02-12 05:56:00,22.6,20.9,30.09,SSW,202,4.0,4.0,93,0.00,,,0.00,0,Wunderground v.1.15,2013-02-12 11:56:00,
2013-02-12 05:58:00,22.7,21.0,30.10,SSW,193,4.0,5.0,93,0.00,,,0.00,0,Wunderground v.1.15,2013-02-12 11:58:00,
2013-02-12 05:59:00,22.8,21.1,30.10,SSW,194,4.0,5.0,93,0.00,,,0.00,0,Wunderground v.1.15,2013-02-12 11:59:00,
2013-02-12 06:01:00,22.9,21.2,30.10,SSW,200,3.0,4.0,93,0.00,,,0.00,0,Wunderground v.1.15,2013-02-12 12:01:00,
2013-02-12 06:03:00,23.0,21.3,30.10,SSW,195,2.0,4.0,93,0.00,,,0.00,0,Wunderground v.1.15,2013-02-12 12:03:00,
2013-02-12 06:05:00,22.9,21.2,30.10,SSW,194,2.0,4.0,93,0.00,,,0.00,0,Wunderground v.1.15,2013-02-12 12:05:00,
2013-02-12 06:07:00,22.9,21.2,30.10,SSW,194,0.0,4.0,93,0.00,,,0.00,0,Wunderground v.1.15,2013-02-12 12:07:00,
2013-02-12 06:08:00,22.8,20.8,30.09,SSW,194,0.0,4.0,92,0.00,,,0.00,0,Wunderground v.1.15,2013-02-12 12:08:00,
2013-02-12 06:09:00,22.8,20.8,30.09,SSW,194,0.0,4.0,92,0.00,,,0.00,0,Wunderground v.1.15,2013-02-12 12:09:00,
2013-02-12 06:10:00,22.7,20.7,30.09,SSW,194,0.0,2.0,92,0.00,,,0.00,0,Wunderground v.1.15,2013-02-12 12:10:00,
2013-02-12 06:12:00,22.6,20.6,30.09,SSW,194,0.0,2.0,92,0.00,,,0.00,0,Wunderground v.1.15,2013-02-12 12:12:00,
2013-02-12 06:14:00,22.6,20.6,30.09,SSW,194,0.0,2.0,92,0.00,,,0.00,0,Wunderground v.1.15,2013-02-12 12:14:00,
2013-02-12 06:15:00,22.6,20.6,30.09,SSW,194,0.0,2.0,92,0.00,,,0.00,0,Wunderground v.1.15,2013-02-12 12:15:00,
2013-02-12 06:16:00,22.5,20.5,30.09,SSW,194,0.0,2.0,92,0.00,,,0.00,0,Wunderground v.1.15,2013-02-12 12:16:00,
2013-02-12 06:19:00,22.5,20.5,30.08,SSW,194,0.0,2.0,92,0.00,,,0.00,0,Wunderground v.1.15,2013-02-12 12:19:00,
2013-02-12 06:20:00,22.4,20.4,30.08,SSW,194,0.0,0.0,92,0.00,,,0.00,0,Wunderground v.1.15,2013-02-12 12:20:00,
2013-02-12 06:22:00,22.3,20.3,30.09,SSW,194,0.0,0.0,92,0.00,,,0.00,0,Wunderground v.1.15,2013-02-12 12:22:00,
2013-02-12 06:23:00,22.3,20.3,30.09,SSW,194,0.0,0.0,92,0.00,,,0.00,0,Wunderground v.1.15,2013-02-12 12:23:00,
2013-02-12 06:25:00,22.2,20.2,30.09,SSW,194,2.0,2.0,92,0.00,,,0.00,0,Wunderground v.1.15,2013-02-12 12:25:00,
2013-02-12 06:28:00,22.3,20.3,30.09,SSW,200,2.0,2.0,92,0.00,,,0.00,0,Wunderground v.1.15,2013-02-12 12:28:00,
2013-02-12 06:30:00,22.4,20.4,30.09,SSW,200,2.0,2.0,92,0.00,,,0.00,0,Wunderground v.1.15,2013-02-12 12:30:00,
2013-02-12 06:31:00,22.4,20.4,30.09,SSW,200,3.0,3.0,92,0.00,,,0.00,0,Wunderground v.1.15,2013-02-12 12:31:00,
2013-02-12 06:33:00,22.5,20.5,30.09,SSW,200,2.0,3.0,92,0.00,,,0.00,0,Wunderground v.1.15,2013-02-12 12:33:00,
2013-02-12 06:35:00,22.5,20.8,30.09,SSW,200,3.0,3.0,93,0.00,,,0.00,0,Wunderground v.1.15,2013-02-12 12:35:00,
2013-02-12 06:37:00,22.5,20.8,30.09,SSW,200,1.0,3.0,93,0.00,,,0.00,0,Wunderground v.1.15,2013-02-12 12:37:00,
2013-02-12 06:38:00,22.5,20.5,30.09,SSW,200,1.0,3.0,92,0.00,,,0.00,0,Wunderground v.1.15,2013-02-12 12:38:00,
2013-02-12 06:40:00,22.4,20.4,30.09,SSW,200,0.0,2.0,92,0.00,,,0.00,0,Wunderground v.1.15,2013-02-12 12:40:00,
2013-02-12 06:43:00,22.4,20.4,30.09,SSW,200,1.0,2.0,92,0.00,,,0.00,0,Wunderground v.1.15,2013-02-12 12:43:00,
2013-02-12 06:44:00,22.3,20.3,30.10,SSW,200,0.0,2.0,92,0.00,,,0.00,0,Wunderground v.1.15,2013-02-12 12:44:00,
2013-02-12 06:46:00,22.3,20.3,30.09,SSW,200,0.0,2.0,92,0.00,,,0.00,0,Wunderground v.1.15,2013-02-12 12:46:00,
2013-02-12 06:48:00,22.2,20.2,30.09,SSW,200,0.0,2.0,92,0.00,,,0.00,0,Wunderground v.1.15,2013-02-12 12:48:00,
2013-02-12 06:49:00,22.1,20.1,30.09,SSW,200,0.0,2.0,92,0.00,,,0.00,0,Wunderground v.1.15,2013-02-12 12:49:00,
2013-02-12 06:51:00,22.1,20.1,30.09,SSW,200,0.0,1.0,92,0.00,,,0.00,0,Wunderground v.1.15,2013-02-12 12:51:00,
2013-02-12 06:56:00,21.8,19.8,30.09,SSW,200,0.0,1.0,92,0.00,,,0.00,0,Wunderground v.1.15,2013-02-12 12:56:00,
2013-02-12 06:57:00,21.8,19.8,30.09,SSW,200,0.0,1.0,92,0.00,,,0.00,0,Wunderground v.1.15,2013-02-12 12:57:00,
2013-02-12 07:01:00,21.8,19.8,30.09,SSW,200,0.0,0.0,92,0.00,,,0.00,0,Wunderground v.1.15,2013-02-12 13:01:00,
2013-02-12 07:02:00,21.8,19.8,30.09,SSW,200,0.0,0.0,92,0.00,,,0.00,0,Wunderground v.1.15,2013-02-12 13:02:00,
2013-02-12 07:05:00,21.8,19.8,30.09,SSW,198,0.0,0.0,92,0.00,,,0.00,0,Wunderground v.1.15,2013-02-12 13:05:00,
2013-02-12 07:07:00,21.9,19.9,30.09,SSW,198,0.0,1.0,92,0.00,,,0.00,0,Wunderground v.1.15,2013-02-12 13:07:00,
2013-02-12 07:08:00,21.9,19.9,30.09,SSW,198,0.0,1.0,92,0.00,,,0.00,0,Wunderground v.1.15,2013-02-12 13:08:00,
2013-02-12 07:09:00,21.9,19.9,30.09,SSW,198,0.0,1.0,92,0.00,,,0.00,0,Wunderground v.1.15,2013-02-12 13:09:00,
2013-02-12 07:13:00,21.9,20.2,30.09,SSW,194,1.0,1.0,93,0.00,,,0.00,5,Wunderground v.1.15,2013-02-12 13:13:00,
2013-02-12 07:14:00,22.0,20.3,30.09,SSW,193,2.0,2.0,93,0.00,,,0.00,5,Wunderground v.1.15,2013-02-12 13:14:00,
2013-02-12 07:16:00,22.0,20.3,30.09,South,188,1.0,2.0,93,0.00,,,0.00,5,Wunderground v.1.15,2013-02-12 13:16:00,
2013-02-12 07:18:00,22.0,20.3,30.09,South,184,1.0,2.0,93,0.00,,,0.00,7,Wunderground v.1.15,2013-02-12 13:18:00,
2013-02-12 07:19:00,22.0,20.3,30.09,South,181,3.0,3.0,93,0.00,,,0.00,7,Wunderground v.1.15,2013-02-12 13:19:00,
2013-02-12 07:24:00,22.1,20.4,30.09,South,178,2.0,3.0,93,0.00,,,0.00,11,Wunderground v.1.15,2013-02-12 13:24:00,
2013-02-12 07:26:00,22.2,20.5,30.08,South,177,1.0,3.0,93,0.00,,,0.00,12,Wunderground v.1.15,2013-02-12 13:26:00,
2013-02-12 07:30:00,22.2,20.5,30.08,South,176,2.0,3.0,93,0.00,,,0.00,14,Wunderground v.1.15,2013-02-12 13:30:00,
2013-02-12 07:31:00,22.3,20.6,30.09,South,173,1.0,3.0,93,0.00,,,0.00,14,Wunderground v.1.15,2013-02-12 13:31:00,
2013-02-12 07:35:00,22.4,20.7,30.08,SSE,168,2.0,3.0,93,0.00,,,0.00,18,Wunderground v.1.15,2013-02-12 13:35:00,
2013-02-12 07:38:00,22.6,20.9,30.08,South,170,3.0,4.0,93,0.00,,,0.00,19,Wunderground v.1.15,2013-02-12 13:38:00,
2013-02-12 07:41:00,22.9,21.2,30.08,South,184,4.0,5.0,93,0.00,,,0.00,25,Wunderground v.1.15,2013-02-12 13:41:00,
2013-02-12 07:43:00,23.0,21.3,30.08,South,182,3.0,5.0,93,0.00,,,0.00,28,Wunderground v.1.15,2013-02-12 13:43:00,
2013-02-12 07:45:00,23.1,21.4,30.08,South,180,3.0,5.0,93,0.00,,,0.00,32,Wunderground v.1.15,2013-02-12 13:45:00,
2013-02-12 07:47:00,23.3,21.6,30.08,South,183,3.0,5.0,93,0.00,,,0.00,37,Wunderground v.1.15,2013-02-12 13:47:00,
2013-02-12 07:48:00,23.3,21.3,30.08,South,191,2.0,5.0,92,0.00,,,0.00,40,Wunderground v.1.15,2013-02-12 13:48:00,
2013-02-12 07:49:00,23.4,21.4,30.08,South,188,2.0,5.0,92,0.00,,,0.00,42,Wunderground v.1.15,2013-02-12 13:49:00,
2013-02-12 07:51:00,23.4,21.4,30.08,South,180,5.0,5.0,92,0.00,,,0.00,49,Wunderground v.1.15,2013-02-12 13:51:00,
2013-02-12 07:53:00,23.5,21.5,30.08,South,174,4.0,5.0,92,0.00,,,0.00,51,Wunderground v.1.15,2013-02-12 13:53:00,
2013-02-12 07:54:00,23.5,21.5,30.08,South,175,2.0,5.0,92,0.00,,,0.00,53,Wunderground v.1.15,2013-02-12 13:54:00,
2013-02-12 07:57:00,23.6,21.6,30.08,South,178,5.0,5.0,92,0.00,,,0.00,62,Wunderground v.1.15,2013-02-12 13:57:00,
2013-02-12 07:59:00,23.7,21.7,30.08,South,186,3.0,5.0,92,0.00,,,0.00,69,Wunderground v.1.15,2013-02-12 13:59:00,
2013-02-12 08:00:00,23.7,21.7,30.08,South,185,3.0,4.0,92,0.00,,,0.00,69,Wunderground v.1.15,2013-02-12 14:00:00,
2013-02-12 08:02:00,23.8,21.8,30.08,South,188,3.0,5.0,92,0.00,,,0.00,76,Wunderground v.1.15,2013-02-12 14:02:00,
2013-02-12 08:03:00,23.8,21.8,30.08,South,190,3.0,5.0,92,0.00,,,0.00,81,Wunderground v.1.15,2013-02-12 14:03:00,
2013-02-12 08:05:00,23.9,21.9,30.08,SSW,192,2.0,5.0,92,0.00,,,0.00,83,Wunderground v.1.15,2013-02-12 14:05:00,
2013-02-12 08:07:00,24.1,22.1,30.08,South,190,3.0,5.0,92,0.00,,,0.00,90,Wunderground v.1.15,2013-02-12 14:07:00,
2013-02-12 08:09:00,24.3,22.3,30.07,SSW,192,4.0,7.0,92,0.00,,,0.00,95,Wunderground v.1.15,2013-02-12 14:09:00,
2013-02-12 08:10:00,24.3,22.3,30.07,South,190,5.0,5.0,92,0.00,,,0.00,98,Wunderground v.1.15,2013-02-12 14:10:00,
2013-02-12 08:11:00,24.4,22.4,30.07,South,188,4.0,6.0,92,0.00,,,0.00,104,Wunderground v.1.15,2013-02-12 14:11:00,
2013-02-12 08:13:00,24.5,22.5,30.07,South,186,4.0,6.0,92,0.00,,,0.00,109,Wunderground v.1.15,2013-02-12 14:13:00,
2013-02-12 08:14:00,24.6,22.6,30.07,South,188,3.0,6.0,92,0.00,,,0.00,113,Wunderground v.1.15,2013-02-12 14:14:00,
2013-02-12 08:16:00,24.7,22.7,30.07,SSW,193,4.0,7.0,92,0.00,,,0.00,121,Wunderground v.1.15,2013-02-12 14:16:00,
2013-02-12 08:18:00,24.7,22.7,30.07,South,186,4.0,7.0,92,0.00,,,0.00,123,Wunderground v.1.15,2013-02-12 14:18:00,
2013-02-12 08:20:00,24.9,22.9,30.06,SSW,197,5.0,5.0,92,0.00,,,0.00,132,Wunderground v.1.15,2013-02-12 14:20:00,
2013-02-12 08:22:00,25.1,23.1,30.07,SSW,200,5.0,6.0,92,0.00,,,0.00,139,Wunderground v.1.15,2013-02-12 14:22:00,
2013-02-12 08:24:00,25.2,23.2,30.06,SSW,194,4.0,7.0,92,0.00,,,0.00,144,Wunderground v.1.15,2013-02-12 14:24:00,
2013-02-12 08:25:00,25.3,23.0,30.06,South,186,6.0,7.0,91,0.00,,,0.00,153,Wunderground v.1.15,2013-02-12 14:25:00,
2013-02-12 08:27:00,25.4,23.1,30.06,SSW,195,7.0,7.0,91,0.00,,,0.00,155,Wunderground v.1.15,2013-02-12 14:27:00,
2013-02-12 08:30:00,25.7,23.4,30.07,SSW,207,5.0,6.0,91,0.00,,,0.00,167,Wunderground v.1.15,2013-02-12 14:30:00,
2013-02-12 08:31:00,25.7,23.4,30.06,South,189,6.0,6.0,91,0.00,,,0.00,169,Wunderground v.1.15,2013-02-12 14:31:00,
2013-02-12 08:33:00,25.8,23.5,30.06,SSW,194,6.0,7.0,91,0.00,,,0.00,178,Wunderground v.1.15,2013-02-12 14:33:00,
2013-02-12 08:36:00,25.8,23.5,30.06,SSW,211,6.0,7.0,91,0.00,,,0.00,188,Wunderground v.1.15,2013-02-12 14:36:00,
2013-02-12 08:38:00,26.0,23.7,30.06,SSW,192,4.0,7.0,91,0.00,,,0.00,193,Wunderground v.1.15,2013-02-12 14:38:00,
2013-02-12 08:39:00,26.1,23.6,30.06,South,190,4.0,7.0,90,0.00,,,0.00,197,Wunderground v.1.15,2013-02-12 14:39:00,
2013-02-12 08:41:00,26.3,23.8,30.05,SW,214,5.0,5.0,90,0.00,,,0.00,204,Wunderground v.1.15,2013-02-12 14:41:00,
2013-02-12 08:44:00,26.4,23.9,30.06,SSW,209,5.0,6.0,90,0.00,,,0.00,214,Wunderground v.1.15,2013-02-12 14:44:00,
2013-02-12 08:47:00,26.6,24.1,30.05,SSW,196,5.0,7.0,90,0.00,,,0.00,221,Wunderground v.1.15,2013-02-12 14:47:00,
2013-02-12 08:48:00,26.7,24.2,30.05,SSW,205,4.0,7.0,90,0.00,,,0.00,227,Wunderground v.1.15,2013-02-12 14:48:00,
2013-02-12 08:50:00,27.0,24.5,30.05,SSW,204,7.0,7.0,90,0.00,,,0.00,234,Wunderground v.1.15,2013-02-12 14:50:00,
2013-02-12 08:53:00,27.1,24.3,30.05,SSW,192,5.0,6.0,89,0.00,,,0.00,241,Wunderground v.1.15,2013-02-12 14:53:00,
2013-02-12 08:56:00,27.3,24.5,30.05,SW,221,7.0,8.0,89,0.00,,,0.00,251,Wunderground v.1.15,2013-02-12 14:56:00,
2013-02-12 08:58:00,27.4,24.6,30.05,SSW,213,5.0,8.0,89,0.00,,,0.00,257,Wunderground v.1.15,2013-02-12 14:58:00,
2013-02-12 09:00:00,27.6,24.8,30.05,SSW,212,7.0,8.0,89,0.00,,,0.00,264,Wunderground v.1.15,2013-02-12 15:00:00,
2013-02-12 09:03:00,27.9,25.1,30.06,SW,219,6.0,8.0,89,0.00,,,0.00,271,Wunderground v.1.15,2013-02-12 15:03:00,
2013-02-12 09:06:00,28.1,25.0,30.05,SW,215,6.0,8.0,88,0.00,,,0.00,283,Wunderground v.1.15,2013-02-12 15:06:00,
2013-02-12 09:08:00,28.2,25.1,30.05,SW,218,9.0,9.0,88,0.00,,,0.00,290,Wunderground v.1.15,2013-02-12 15:08:00,
2013-02-12 09:09:00,28.2,24.8,30.05,SW,229,8.0,9.0,87,0.00,,,0.00,290,Wunderground v.1.15,2013-02-12 15:09:00,
2013-02-12 09:11:00,28.3,24.9,30.05,SW,219,11.0,11.0,87,0.00,,,0.00,297,Wunderground v.1.15,2013-02-12 15:11:00,
2013-02-12 09:13:00,28.4,25.0,30.05,SW,225,5.0,11.0,87,0.00,,,0.00,306,Wunderground v.1.15,2013-02-12 15:13:00,
2013-02-12 09:14:00,28.5,25.4,30.05,SW,232,7.0,11.0,88,0.00,,,0.00,308,Wunderground v.1.15,2013-02-12 15:14:00,
2013-02-12 09:16:00,28.8,25.7,30.05,SW,217,8.0,11.0,88,0.00,,,0.00,313,Wunderground v.1.15,2013-02-12 15:16:00,
2013-02-12 09:17:00,28.8,25.4,30.05,SW,236,7.0,11.0,87,0.00,,,0.00,315,Wunderground v.1.15,2013-02-12 15:17:00,
2013-02-12 09:18:00,29.0,25.6,30.05,SW,232,8.0,11.0,87,0.00,,,0.00,320,Wunderground v.1.15,2013-02-12 15:18:00,
2013-02-12 09:21:00,29.2,25.8,30.05,WSW,243,9.0,9.0,87,0.00,,,0.00,325,Wunderground v.1.15,2013-02-12 15:21:00,
2013-02-12 09:23:00,29.2,25.5,30.05,SW,225,7.0,9.0,86,0.00,,,0.00,325,Wunderground v.1.15,2013-02-12 15:23:00,
2013-02-12 09:25:00,29.3,25.6,30.05,SW,222,8.0,9.0,86,0.00,,,0.00,330,Wunderground v.1.15,2013-02-12 15:25:00,
2013-02-12 09:26:00,29.3,25.6,30.06,SSW,208,7.0,9.0,86,0.00,,,0.00,330,Wunderground v.1.15,2013-02-12 15:26:00,
2013-02-12 09:27:00,29.4,25.7,30.06,SSW,205,8.0,9.0,86,0.00,,,0.00,330,Wunderground v.1.15,2013-02-12 15:27:00,
2013-02-12 09:30:00,29.9,26.2,30.06,SSW,207,10.0,10.0,86,0.00,,,0.00,338,Wunderground v.1.15,2013-02-12 15:30:00,
2013-02-12 09:32:00,30.1,26.4,30.06,SSW,199,9.0,11.0,86,0.00,,,0.00,339,Wunderground v.1.15,2013-02-12 15:32:00,
2013-02-12 09:34:00,30.2,26.5,30.07,SSW,203,8.0,12.0,86,0.00,,,0.00,343,Wunderground v.1.15,2013-02-12 15:34:00,
2013-02-12 09:36:00,30.4,26.4,30.07,SSW,211,9.0,13.0,85,0.00,,,0.00,350,Wunderground v.1.15,2013-02-12 15:36:00,
2013-02-12 09:38:00,30.6,26.6,30.07,SSW,196,16.0,16.0,85,0.00,,,0.00,350,Wunderground v.1.15,2013-02-12 15:38:00,
2013-02-12 09:39:00,30.8,27.1,30.07,SSW,211,7.0,16.0,86,0.00,,,0.00,353,Wunderground v.1.15,2013-02-12 15:39:00,
2013-02-12 09:40:00,30.9,27.2,30.07,SSW,211,11.0,11.0,86,0.00,,,0.00,353,Wunderground v.1.15,2013-02-12 15:40:00,
2013-02-12 09:42:00,31.2,27.5,30.07,SSW,203,14.0,14.0,86,0.00,,,0.00,360,Wunderground v.1.15,2013-02-12 15:42:00,
2013-02-12 09:43:00,31.3,27.0,30.07,SSW,200,12.0,14.0,84,0.00,,,0.00,364,Wunderground v.1.15,2013-02-12 15:43:00,
2013-02-12 09:45:00,31.4,27.4,30.07,SSW,202,10.0,14.0,85,0.00,,,0.00,369,Wunderground v.1.15,2013-02-12 15:45:00,
2013-02-12 09:48:00,31.5,27.2,30.07,SSW,209,8.0,14.0,84,0.00,,,0.00,376,Wunderground v.1.15,2013-02-12 15:48:00,
2013-02-12 09:51:00,31.7,27.4,30.07,SSW,194,10.0,11.0,84,0.00,,,0.00,387,Wunderground v.1.15,2013-02-12 15:51:00,
2013-02-12 09:53:00,31.8,27.5,30.07,SSW,210,9.0,11.0,84,0.00,,,0.00,392,Wunderground v.1.15,2013-02-12 15:53:00,
2013-02-12 09:54:00,31.9,27.6,30.07,SSW,202,10.0,11.0,84,0.00,,,0.00,394,Wunderground v.1.15,2013-02-12 15:54:00,
2013-02-12 09:55:00,31.9,27.6,30.06,SSW,194,10.0,12.0,84,0.00,,,0.00,394,Wunderground v.1.15,2013-02-12 15:55:00,
2013-02-12 09:57:00,32.0,27.4,30.06,SW,216,10.0,12.0,83,0.00,,,0.00,399,Wunderground v.1.15,2013-02-12 15:57:00,
2013-02-12 09:58:00,32.2,27.9,30.06,SW,218,15.0,15.0,84,0.00,,,0.00,406,Wunderground v.1.15,2013-02-12 15:58:00,
2013-02-12 09:59:00,32.3,27.7,30.06,SW,224,11.0,15.0,83,0.00,,,0.00,403,Wunderground v.1.15,2013-02-12 15:59:00,
2013-02-12 10:03:00,32.7,27.8,30.06,SW,229,8.0,10.0,82,0.00,,,0.00,415,Wunderground v.1.15,2013-02-12 16:03:00,
2013-02-12 10:04:00,32.8,28.2,30.06,SSW,203,10.0,10.0,83,0.00,,,0.00,418,Wunderground v.1.15,2013-02-12 16:04:00,
2013-02-12 10:09:00,32.8,27.9,30.06,South,188,8.0,14.0,82,0.00,,,0.00,427,Wunderground v.1.15,2013-02-12 16:09:00,
2013-02-12 10:10:00,33.0,28.4,30.07,SSW,213,9.0,11.0,83,0.00,,,0.00,431,Wunderground v.1.15,2013-02-12 16:10:00,
2013-02-12 10:11:00,33.1,28.5,30.07,SW,219,10.0,11.0,83,0.00,,,0.00,434,Wunderground v.1.15,2013-02-12 16:11:00,
2013-02-12 10:14:00,33.3,28.4,30.06,SW,225,10.0,14.0,82,0.00,,,0.00,441,Wunderground v.1.15,2013-02-12 16:14:00,
2013-02-12 10:15:00,33.3,28.1,30.07,SSW,212,9.0,14.0,81,0.00,,,0.00,441,Wunderground v.1.15,2013-02-12 16:15:00,
2013-02-12 10:17:00,33.4,28.2,30.06,SW,215,11.0,14.0,81,0.00,,,0.00,446,Wunderground v.1.15,2013-02-12 16:17:00,
2013-02-12 10:19:00,33.6,28.7,30.06,SSW,199,7.0,14.0,82,0.00,,,0.00,454,Wunderground v.1.15,2013-02-12 16:19:00,
2013-02-12 10:20:00,33.7,28.5,30.06,SSW,196,9.0,10.0,81,0.00,,,0.00,455,Wunderground v.1.15,2013-02-12 16:20:00,
2013-02-12 10:22:00,33.9,28.7,30.06,SSW,203,11.0,11.0,81,0.00,,,0.00,459,Wunderground v.1.15,2013-02-12 16:22:00,
2013-02-12 10:24:00,34.0,28.5,30.06,SSW,210,7.0,11.0,80,0.00,,,0.00,461,Wunderground v.1.15,2013-02-12 16:24:00,
2013-02-12 10:25:00,34.1,28.9,30.06,SW,225,10.0,13.0,81,0.00,,,0.00,466,Wunderground v.1.15,2013-02-12 16:25:00,
2013-02-12 10:26:00,34.1,28.9,30.06,SW,227,10.0,13.0,81,0.00,,,0.00,466,Wunderground v.1.15,2013-02-12 16:26:00,
2013-02-12 10:28:00,34.2,28.7,30.06,SW,218,12.0,13.0,80,0.00,,,0.00,473,Wunderground v.1.15,2013-02-12 16:28:00,
2013-02-12 10:30:00,34.6,29.4,30.05,SSW,213,8.0,10.0,81,0.00,,,0.00,476,Wunderground v.1.15,2013-02-12 16:30:00,
2013-02-12 10:31:00,34.7,29.2,30.05,SW,214,6.0,10.0,80,0.00,,,0.00,482,Wunderground v.1.15,2013-02-12 16:31:00,
2013-02-12 10:32:00,34.7,28.9,30.05,SSW,211,7.0,10.0,79,0.00,,,0.00,482,Wunderground v.1.15,2013-02-12 16:32:00,
2013-02-12 10:36:00,35.0,29.1,30.05,SSW,196,8.0,12.0,79,0.00,,,0.00,489,Wunderground v.1.15,2013-02-12 16:36:00,
2013-02-12 10:37:00,35.0,29.1,30.05,SW,227,10.0,12.0,79,0.00,,,0.00,489,Wunderground v.1.15,2013-02-12 16:37:00,
2013-02-12 10:41:00,35.5,29.6,30.05,SW,225,8.0,10.0,79,0.00,,,0.00,501,Wunderground v.1.15,2013-02-12 16:41:00,
2013-02-12 10:42:00,35.5,29.6,30.05,SW,224,8.0,10.0,79,0.00,,,0.00,501,Wunderground v.1.15,2013-02-12 16:42:00,
2013-02-12 10:43:00,35.6,29.7,30.05,SSW,204,7.0,10.0,79,0.00,,,0.00,501,Wunderground v.1.15,2013-02-12 16:43:00,
2013-02-12 10:48:00,36.1,30.2,30.04,SW,214,9.0,10.0,79,0.00,,,0.00,510,Wunderground v.1.15,2013-02-12 16:48:00,
2013-02-12 10:51:00,36.5,30.0,30.04,SW,227,7.0,8.0,77,0.00,,,0.00,519,Wunderground v.1.15,2013-02-12 16:51:00,
2013-02-12 10:53:00,36.6,29.4,30.04,SW,221,9.0,12.0,75,0.00,,,0.00,520,Wunderground v.1.15,2013-02-12 16:53:00,
2013-02-12 10:54:00,36.6,29.4,30.04,SW,229,9.0,13.0,75,0.00,,,0.00,524,Wunderground v.1.15,2013-02-12 16:54:00,
2013-02-12 10:55:00,36.6,29.4,30.04,SW,229,13.0,13.0,75,0.00,,,0.00,524,Wunderground v.1.15,2013-02-12 16:55:00,
2013-02-12 10:57:00,36.8,29.6,30.04,SW,227,7.0,13.0,75,0.00,,,0.00,527,Wunderground v.1.15,2013-02-12 16:57:00,
2013-02-12 10:59:00,37.0,29.5,30.04,SW,234,11.0,13.0,74,0.00,,,0.00,531,Wunderground v.1.15,2013-02-12 16:59:00,
2013-02-12 11:00:00,37.0,29.1,30.04,WSW,241,11.0,11.0,73,0.00,,,0.00,533,Wunderground v.1.15,2013-02-12 17:00:00,
2013-02-12 11:01:00,37.1,29.2,30.04,SW,219,12.0,14.0,73,0.00,,,0.00,534,Wunderground v.1.15,2013-02-12 17:01:00,
2013-02-12 11:04:00,37.3,29.4,30.03,WSW,248,10.0,14.0,73,0.00,,,0.00,540,Wunderground v.1.15,2013-02-12 17:04:00,
2013-02-12 11:06:00,37.3,29.1,30.03,SW,236,9.0,15.0,72,0.00,,,0.00,545,Wunderground v.1.15,2013-02-12 17:06:00,
2013-02-12 11:10:00,37.6,29.7,30.03,SW,221,10.0,11.0,73,0.00,,,0.00,550,Wunderground v.1.15,2013-02-12 17:10:00,
2013-02-12 11:11:00,37.6,29.7,30.03,SSW,213,9.0,14.0,73,0.00,,,0.00,550,Wunderground v.1.15,2013-02-12 17:11:00,
2013-02-12 11:13:00,37.9,30.7,30.03,SW,220,10.0,14.0,75,0.00,,,0.00,554,Wunderground v.1.15,2013-02-12 17:13:00,
2013-02-12 11:16:00,38.0,30.1,30.03,SW,223,11.0,14.0,73,0.00,,,0.00,557,Wunderground v.1.15,2013-02-12 17:16:00,
2013-02-12 11:19:00,38.2,30.0,30.03,SSW,211,9.0,14.0,72,0.00,,,0.00,563,Wunderground v.1.15,2013-02-12 17:19:00,
2013-02-12 11:22:00,38.6,31.0,30.03,SW,221,13.0,17.0,74,0.00,,,0.00,568,Wunderground v.1.15,2013-02-12 17:22:00,
2013-02-12 11:23:00,38.6,31.0,30.03,SW,217,8.0,17.0,74,0.00,,,0.00,568,Wunderground v.1.15,2013-02-12 17:23:00,
2013-02-12 11:24:00,38.7,30.8,30.03,SW,222,10.0,17.0,73,0.00,,,0.00,570,Wunderground v.1.15,2013-02-12 17:24:00,
2013-02-12 11:25:00,38.7,29.8,30.03,SSW,213,11.0,17.0,70,0.00,,,0.00,571,Wunderground v.1.15,2013-02-12 17:25:00,
2013-02-12 11:28:00,38.8,30.2,30.03,SW,223,11.0,17.0,71,0.00,,,0.00,573,Wunderground v.1.15,2013-02-12 17:28:00,
2013-02-12 11:30:00,39.0,30.4,30.03,SW,219,10.0,13.0,71,0.00,,,0.00,577,Wunderground v.1.15,2013-02-12 17:30:00,
2013-02-12 11:31:00,39.0,30.4,30.03,SW,222,11.0,14.0,71,0.00,,,0.00,577,Wunderground v.1.15,2013-02-12 17:31:00,
2013-02-12 11:35:00,39.1,30.5,30.03,SW,215,13.0,14.0,71,0.00,,,0.00,580,Wunderground v.1.15,2013-02-12 17:35:00,
2013-02-12 11:36:00,39.3,30.7,30.03,SSW,209,9.0,14.0,71,0.00,,,0.00,582,Wunderground v.1.15,2013-02-12 17:36:00,
2013-02-12 11:41:00,39.4,30.4,30.02,SW,218,11.0,14.0,70,0.00,,,0.00,587,Wunderground v.1.15,2013-02-12 17:41:00,
2013-02-12 11:42:00,39.5,30.9,30.02,SW,218,9.0,14.0,71,0.00,,,0.00,587,Wunderground v.1.15,2013-02-12 17:42:00,
2013-02-12 11:47:00,39.6,30.6,30.02,SW,221,13.0,15.0,70,0.00,,,0.00,591,Wunderground v.1.15,2013-02-12 17:47:00,
2013-02-12 11:49:00,39.8,31.8,30.02,SSW,213,12.0,15.0,73,0.00,,,0.00,592,Wunderground v.1.15,2013-02-12 17:49:00,
2013-02-12 11:52:00,39.9,31.6,30.01,SW,236,11.0,13.0,72,0.00,,,0.00,596,Wunderground v.1.15,2013-02-12 17:52:00,
2013-02-12 11:53:00,39.9,31.3,30.01,WSW,239,11.0,13.0,71,0.00,,,0.00,598,Wunderground v.1.15,2013-02-12 17:53:00,
2013-02-12 11:57:00,39.7,30.4,30.01,SW,220,11.0,13.0,69,0.00,,,0.00,601,Wunderground v.1.15,2013-02-12 17:57:00,
2013-02-12 11:59:00,39.7,30.7,30.01,SW,227,13.0,13.0,70,0.00,,,0.00,601,Wunderground v.1.15,2013-02-12 17:59:00,
2013-02-12 12:00:00,39.8,30.8,30.01,SW,223,12.0,12.0,70,0.00,,,0.00,601,Wunderground v.1.15,2013-02-12 18:00:00,
2013-02-12 12:02:00,39.9,30.9,30.01,SW,229,16.0,17.0,70,0.00,,,0.00,603,Wunderground v.1.15,2013-02-12 18:02:00,
2013-02-12 12:04:00,40.0,31.4,30.01,SW,222,12.0,17.0,71,0.00,,,0.00,605,Wunderground v.1.15,2013-02-12 18:04:00,
2013-02-12 12:05:00,40.1,31.4,30.01,SSW,211,11.0,17.0,71,0.00,,,0.00,606,Wunderground v.1.15,2013-02-12 18:05:00,
2013-02-12 12:07:00,40.2,31.9,30.01,SSW,209,9.0,17.0,72,0.00,,,0.00,608,Wunderground v.1.15,2013-02-12 18:07:00,
2013-02-12 12:09:00,40.4,31.4,30.01,SW,218,7.0,17.0,70,0.00,,,0.00,608,Wunderground v.1.15,2013-02-12 18:09:00,
2013-02-12 12:10:00,40.5,31.8,30.00,SW,218,10.0,12.0,71,0.00,,,0.00,610,Wunderground v.1.15,2013-02-12 18:10:00,
2013-02-12 12:13:00,40.6,31.6,30.00,SW,219,13.0,15.0,70,0.00,,,0.00,612,Wunderground v.1.15,2013-02-12 18:13:00,
2013-02-12 12:15:00,40.5,31.1,30.00,WSW,237,9.0,15.0,69,0.00,,,0.00,612,Wunderground v.1.15,2013-02-12 18:15:00,
2013-02-12 12:16:00,40.6,31.9,30.00,SW,233,13.0,15.0,71,0.00,,,0.00,610,Wunderground v.1.15,2013-02-12 18:16:00,
2013-02-12 12:19:00,40.9,32.6,30.00,SSW,213,8.0,15.0,72,0.00,,,0.00,615,Wunderground v.1.15,2013-02-12 18:19:00,
2013-02-12 12:20:00,40.9,31.5,30.00,SW,217,10.0,11.0,69,0.00,,,0.00,615,Wunderground v.1.15,2013-02-12 18:20:00,
2013-02-12 12:21:00,40.9,31.5,30.00,SW,221,9.0,11.0,69,0.00,,,0.00,615,Wunderground v.1.15,2013-02-12 18:21:00,
2013-02-12 12:24:00,40.8,31.4,30.00,SW,233,13.0,13.0,69,0.00,,,0.00,615,Wunderground v.1.15,2013-02-12 18:24:00,
2013-02-12 12:26:00,40.9,31.9,29.99,SW,232,10.0,13.0,70,0.00,,,0.00,617,Wunderground v.1.15,2013-02-12 18:26:00,
2013-02-12 12:27:00,41.0,32.7,29.99,SW,215,12.0,14.0,72,0.00,,,0.00,617,Wunderground v.1.15,2013-02-12 18:27:00,
2013-02-12 12:29:00,41.0,31.6,29.99,SW,214,11.0,14.0,69,0.00,,,0.00,615,Wunderground v.1.15,2013-02-12 18:29:00,
2013-02-12 12:30:00,41.0,31.6,29.99,SSW,213,9.0,11.0,69,0.00,,,0.00,615,Wunderground v.1.15,2013-02-12 18:30:00,
2013-02-12 12:32:00,41.1,32.1,29.99,SSW,213,11.0,14.0,70,0.00,,,0.00,617,Wunderground v.1.15,2013-02-12 18:32:00,
2013-02-12 12:33:00,41.1,32.1,29.99,SW,219,12.0,14.0,70,0.00,,,0.00,615,Wunderground v.1.15,2013-02-12 18:33:00,
2013-02-12 12:36:00,41.2,32.5,29.99,SW,221,11.0,16.0,71,0.00,,,0.00,615,Wunderground v.1.15,2013-02-12 18:36:00,
2013-02-12 12:39:00,41.2,31.8,29.99,SW,220,11.0,16.0,69,0.00,,,0.00,622,Wunderground v.1.15,2013-02-12 18:39:00,
2013-02-12 12:42:00,41.1,32.1,29.99,SW,225,9.0,13.0,70,0.00,,,0.00,622,Wunderground v.1.15,2013-02-12 18:42:00,
2013-02-12 12:43:00,41.1,32.1,29.99,SW,221,9.0,13.0,70,0.00,,,0.00,622,Wunderground v.1.15,2013-02-12 18:43:00,
2013-02-12 12:45:00,41.3,33.0,29.98,SW,226,12.0,13.0,72,0.00,,,0.00,626,Wunderground v.1.15,2013-02-12 18:45:00,
2013-02-12 12:46:00,41.3,33.0,29.98,SSW,209,9.0,13.0,72,0.00,,,0.00,626,Wunderground v.1.15,2013-02-12 18:46:00,
2013-02-12 12:48:00,41.3,32.2,29.98,SSW,209,13.0,13.0,70,0.00,,,0.00,624,Wunderground v.1.15,2013-02-12 18:48:00,
2013-02-12 12:49:00,41.4,33.4,29.98,SW,216,12.0,13.0,73,0.00,,,0.00,622,Wunderground v.1.15,2013-02-12 18:49:00,
2013-02-12 12:50:00,41.5,33.5,29.98,SW,226,9.0,10.0,73,0.00,,,0.00,622,Wunderground v.1.15,2013-02-12 18:50:00,
2013-02-12 12:52:00,41.6,32.5,29.98,SW,219,10.0,11.0,70,0.00,,,0.00,622,Wunderground v.1.15,2013-02-12 18:52:00,
2013-02-12 12:54:00,41.8,32.7,29.98,SW,225,11.0,12.0,70,0.00,,,0.00,622,Wunderground v.1.15,2013-02-12 18:54:00,
2013-02-12 12:55:00,41.9,32.8,29.98,SW,229,7.0,12.0,70,0.00,,,0.00,621,Wunderground v.1.15,2013-02-12 18:55:00,
2013-02-12 12:57:00,42.1,33.0,29.97,SW,232,12.0,12.0,70,0.00,,,0.00,621,Wunderground v.1.15,2013-02-12 18:57:00,
2013-02-12 12:59:00,42.2,33.5,29.97,WSW,253,11.0,12.0,71,0.00,,,0.00,619,Wunderground v.1.15,2013-02-12 18:59:00,
2013-02-12 13:01:00,42.1,32.3,29.97,SW,215,9.0,11.0,68,0.00,,,0.00,619,Wunderground v.1.15,2013-02-12 19:01:00,
2013-02-12 13:03:00,42.2,33.1,29.97,SW,219,8.0,11.0,70,0.00,,,0.00,617,Wunderground v.1.15,2013-02-12 19:03:00,
2013-02-12 13:04:00,42.3,33.6,29.97,SW,227,14.0,14.0,71,0.00,,,0.00,619,Wunderground v.1.15,2013-02-12 19:04:00,
2013-02-12 13:05:00,42.3,33.6,29.97,SW,235,10.0,14.0,71,0.00,,,0.00,619,Wunderground v.1.15,2013-02-12 19:05:00,
2013-02-12 13:07:00,42.3,33.2,29.97,WSW,244,8.0,14.0,70,0.00,,,0.00,619,Wunderground v.1.15,2013-02-12 19:07:00,
2013-02-12 13:08:00,42.4,34.0,29.97,WSW,238,10.0,14.0,72,0.00,,,0.00,615,Wunderground v.1.15,2013-02-12 19:08:00,
2013-02-12 13:11:00,42.5,32.7,29.97,SW,229,8.0,12.0,68,0.00,,,0.00,612,Wunderground v.1.15,2013-02-12 19:11:00,
2013-02-12 13:12:00,42.5,33.0,29.96,SW,215,10.0,12.0,69,0.00,,,0.00,615,Wunderground v.1.15,2013-02-12 19:12:00,
2013-02-12 13:15:00,42.6,34.2,29.96,SW,221,11.0,12.0,72,0.00,,,0.00,612,Wunderground v.1.15,2013-02-12 19:15:00,
2013-02-12 13:16:00,42.7,33.9,29.96,SW,227,13.0,13.0,71,0.00,,,0.00,612,Wunderground v.1.15,2013-02-12 19:16:00,
2013-02-12 13:18:00,42.6,33.5,29.96,SW,219,11.0,13.0,70,0.00,,,0.00,610,Wunderground v.1.15,2013-02-12 19:18:00,
2013-02-12 13:21:00,42.5,34.1,29.95,SW,228,10.0,10.0,72,0.00,,,0.00,606,Wunderground v.1.15,2013-02-12 19:21:00,
2013-02-12 13:22:00,42.5,33.4,29.95,SW,232,7.0,12.0,70,0.00,,,0.00,605,Wunderground v.1.15,2013-02-12 19:22:00,
2013-02-12 13:23:00,42.5,33.4,29.95,SW,221,9.0,12.0,70,0.00,,,0.00,612,Wunderground v.1.15,2013-02-12 19:23:00,
2013-02-12 13:27:00,43.0,33.9,29.95,WSW,239,10.0,16.0,70,0.00,,,0.00,603,Wunderground v.1.15,2013-02-12 19:27:00,
2013-02-12 13:28:00,43.1,34.0,29.95,WSW,237,9.0,16.0,70,0.00,,,0.00,605,Wunderground v.1.15,2013-02-12 19:28:00,
2013-02-12 13:30:00,43.1,33.3,29.95,SW,233,11.0,16.0,68,0.00,,,0.00,605,Wunderground v.1.15,2013-02-12 19:30:00,
2013-02-12 13:32:00,43.1,33.6,29.95,SW,216,10.0,13.0,69,0.00,,,0.00,599,Wunderground v.1.15,2013-02-12 19:32:00,
2013-02-12 13:33:00,43.2,34.8,29.94,WSW,239,9.0,13.0,72,0.00,,,0.00,598,Wunderground v.1.15,2013-02-12 19:33:00,
2013-02-12 13:34:00,43.3,34.9,29.95,WSW,240,8.0,13.0,72,0.00,,,0.00,598,Wunderground v.1.15,2013-02-12 19:34:00,
2013-02-12 13:35:00,43.4,35.0,29.95,SW,234,11.0,13.0,72,0.00,,,0.00,585,Wunderground v.1.15,2013-02-12 19:35:00,
2013-02-12 13:39:00,43.5,34.0,29.95,SW,227,12.0,14.0,69,0.00,,,0.00,589,Wunderground v.1.15,2013-02-12 19:39:00,
2013-02-12 13:40:00,43.5,34.0,29.95,SW,232,10.0,13.0,69,0.00,,,0.00,587,Wunderground v.1.15,2013-02-12 19:40:00,
2013-02-12 13:41:00,43.4,34.3,29.94,SW,235,11.0,13.0,70,0.00,,,0.00,585,Wunderground v.1.15,2013-02-12 19:41:00,
2013-02-12 13:44:00,43.1,33.6,29.94,SW,223,12.0,13.0,69,0.00,,,0.00,594,Wunderground v.1.15,2013-02-12 19:44:00,
2013-02-12 13:45:00,43.1,34.0,29.94,SSW,213,7.0,13.0,70,0.00,,,0.00,587,Wunderground v.1.15,2013-02-12 19:45:00,
2013-02-12 13:46:00,43.0,33.2,29.94,SW,227,8.0,13.0,68,0.00,,,0.00,592,Wunderground v.1.15,2013-02-12 19:46:00,
2013-02-12 13:47:00,43.1,33.3,29.94,SW,221,8.0,13.0,68,0.00,,,0.00,589,Wunderground v.1.15,2013-02-12 19:47:00,
2013-02-12 13:49:00,43.5,35.8,29.94,SW,236,10.0,13.0,74,0.00,,,0.00,573,Wunderground v.1.15,2013-02-12 19:49:00,
2013-02-12 13:50:00,43.6,34.8,29.94,SW,228,6.0,10.0,71,0.00,,,0.00,584,Wunderground v.1.15,2013-02-12 19:50:00,
2013-02-12 13:52:00,43.6,34.1,29.94,SSW,210,10.0,13.0,69,0.00,,,0.00,554,Wunderground v.1.15,2013-02-12 19:52:00,
2013-02-12 13:55:00,43.5,34.4,29.94,SW,229,12.0,13.0,70,0.00,,,0.00,573,Wunderground v.1.15,2013-02-12 19:55:00,
2013-02-12 13:57:00,43.5,34.0,29.94,WSW,241,9.0,13.0,69,0.00,,,0.00,568,Wunderground v.1.15,2013-02-12 19:57:00,
2013-02-12 13:58:00,43.5,34.0,29.94,SW,217,8.0,13.0,69,0.00,,,0.00,575,Wunderground v.1.15,2013-02-12 19:58:00,
2013-02-12 13:59:00,43.6,35.2,29.94,WSW,242,10.0,13.0,72,0.00,,,0.00,575,Wunderground v.1.15,2013-02-12 19:59:00,
2013-02-12 14:01:00,43.6,35.2,29.94,SW,221,11.0,11.0,72,0.00,,,0.00,564,Wunderground v.1.15,2013-02-12 20:01:00,
2013-02-12 14:04:00,43.5,34.0,29.93,SW,216,14.0,14.0,69,0.00,,,0.00,550,Wunderground v.1.15,2013-02-12 20:04:00,
2013-02-12 14:05:00,43.5,34.4,29.94,SW,226,11.0,14.0,70,0.00,,,0.00,531,Wunderground v.1.15,2013-02-12 20:05:00,
2013-02-12 14:08:00,43.6,34.1,29.94,SW,221,9.0,14.0,69,0.00,,,0.00,548,Wunderground v.1.15,2013-02-12 20:08:00,
2013-02-12 14:09:00,43.6,35.2,29.94,SW,215,13.0,14.0,72,0.00,,,0.00,548,Wunderground v.1.15,2013-02-12 20:09:00,
2013-02-12 14:10:00,43.5,34.4,29.93,SW,218,12.0,12.0,70,0.00,,,0.00,541,Wunderground v.1.15,2013-02-12 20:10:00,
2013-02-12 14:11:00,43.5,34.4,29.93,SSW,202,7.0,12.0,70,0.00,,,0.00,545,Wunderground v.1.15,2013-02-12 20:11:00,
2013-02-12 14:13:00,43.4,34.6,29.93,SW,219,12.0,13.0,71,0.00,,,0.00,538,Wunderground v.1.15,2013-02-12 20:13:00,
2013-02-12 14:14:00,43.3,33.8,29.93,SW,216,12.0,13.0,69,0.00,,,0.00,526,Wunderground v.1.15,2013-02-12 20:14:00,
2013-02-12 14:16:00,43.3,34.2,29.93,SW,230,11.0,15.0,70,0.00,,,0.00,512,Wunderground v.1.15,2013-02-12 20:16:00,
2013-02-12 14:17:00,43.3,34.2,29.93,SW,230,8.0,15.0,70,0.00,,,0.00,485,Wunderground v.1.15,2013-02-12 20:17:00,
2013-02-12 14:18:00,43.3,34.2,29.93,SW,214,13.0,15.0,70,0.00,,,0.00,475,Wunderground v.1.15,2013-02-12 20:18:00,
2013-02-12 14:20:00,43.3,33.4,29.93,SW,218,10.0,11.0,68,0.00,,,0.00,506,Wunderground v.1.15,2013-02-12 20:20:00,
2013-02-12 14:21:00,43.2,33.7,29.93,SW,227,11.0,13.0,69,0.00,,,0.00,494,Wunderground v.1.15,2013-02-12 20:21:00,
2013-02-12 14:22:00,43.2,33.7,29.93,SW,218,8.0,13.0,69,0.00,,,0.00,492,Wunderground v.1.15,2013-02-12 20:22:00,
2013-02-12 14:24:00,43.4,35.0,29.93,SW,233,11.0,13.0,72,0.00,,,0.00,452,Wunderground v.1.15,2013-02-12 20:24:00,
2013-02-12 14:26:00,43.4,34.3,29.93,SW,223,12.0,15.0,70,0.00,,,0.00,478,Wunderground v.1.15,2013-02-12 20:26:00,
2013-02-12 14:27:00,43.4,33.9,29.93,SW,230,9.0,15.0,69,0.00,,,0.00,494,Wunderground v.1.15,2013-02-12 20:27:00,
2013-02-12 14:28:00,43.4,34.3,29.93,SW,219,9.0,15.0,70,0.00,,,0.00,487,Wunderground v.1.15,2013-02-12 20:28:00,
2013-02-12 14:29:00,43.4,34.3,29.93,SSW,202,12.0,15.0,70,0.00,,,0.00,492,Wunderground v.1.15,2013-02-12 20:29:00,
2013-02-12 14:32:00,43.4,34.3,29.93,SW,225,14.0,16.0,70,0.00,,,0.00,499,Wunderground v.1.15,2013-02-12 20:32:00,
2013-02-12 14:34:00,43.3,34.2,29.93,SSW,206,8.0,16.0,70,0.00,,,0.00,501,Wunderground v.1.15,2013-02-12 20:34:00,
2013-02-12 14:35:00,43.4,35.0,29.92,SSW,211,12.0,16.0,72,0.00,,,0.00,494,Wunderground v.1.15,2013-02-12 20:35:00,
2013-02-12 14:39:00,43.6,34.5,29.92,SW,221,7.0,16.0,70,0.00,,,0.00,487,Wunderground v.1.15,2013-02-12 20:39:00,
2013-02-12 14:40:00,43.6,34.8,29.92,SW,215,9.0,12.0,71,0.00,,,0.00,492,Wunderground v.1.15,2013-02-12 20:40:00,
2013-02-12 14:45:00,43.5,34.7,29.92,SW,227,10.0,15.0,71,0.00,,,0.00,480,Wunderground v.1.15,2013-02-12 20:45:00,
2013-02-12 14:46:00,43.6,34.8,29.92,SSW,213,9.0,15.0,71,0.00,,,0.00,478,Wunderground v.1.15,2013-02-12 20:46:00,
2013-02-12 14:50:00,43.9,35.1,29.92,SW,228,12.0,12.0,71,0.00,,,0.00,469,Wunderground v.1.15,2013-02-12 20:50:00,
2013-02-12 14:51:00,43.9,35.1,29.92,SW,214,14.0,14.0,71,0.00,,,0.00,469,Wunderground v.1.15,2013-02-12 20:51:00,
2013-02-12 14:53:00,43.9,34.7,29.92,SW,219,12.0,14.0,70,0.00,,,0.00,464,Wunderground v.1.15,2013-02-12 20:53:00,
2013-02-12 14:56:00,44.1,35.3,29.92,SSW,209,12.0,14.0,71,0.00,,,0.00,461,Wunderground v.1.15,2013-02-12 20:56:00,
2013-02-12 14:57:00,44.2,35.0,29.92,SW,231,12.0,14.0,70,0.00,,,0.00,455,Wunderground v.1.15,2013-02-12 20:57:00,
2013-02-12 14:59:00,44.2,35.0,29.92,WSW,241,7.0,14.0,70,0.00,,,0.00,452,Wunderground v.1.15,2013-02-12 20:59:00,
2013-02-12 15:02:00,44.5,35.0,29.92,SW,232,13.0,15.0,69,0.00,,,0.00,448,Wunderground v.1.15,2013-02-12 21:02:00,
2013-02-12 15:03:00,44.4,34.1,29.92,SW,232,11.0,15.0,67,0.00,,,0.00,448,Wunderground v.1.15,2013-02-12 21:03:00,
2013-02-12 15:05:00,44.5,34.2,29.92,SW,225,11.0,15.0,67,0.00,,,0.00,441,Wunderground v.1.15,2013-02-12 21:05:00,
2013-02-12 15:08:00,44.5,34.6,29.92,SW,226,14.0,15.0,68,0.00,,,0.00,434,Wunderground v.1.15,2013-02-12 21:08:00,
2013-02-12 15:09:00,44.4,33.7,29.91,WSW,250,12.0,15.0,66,0.00,,,0.00,427,Wunderground v.1.15,2013-02-12 21:09:00,
2013-02-12 15:13:00,44.3,33.7,29.91,SW,225,12.0,14.0,66,0.00,,,0.00,425,Wunderground v.1.15,2013-02-12 21:13:00,
2013-02-12 15:14:00,44.3,34.4,29.91,SW,232,10.0,14.0,68,0.00,,,0.00,413,Wunderground v.1.15,2013-02-12 21:14:00,
2013-02-12 15:18:00,44.3,34.8,29.91,SW,232,12.0,14.0,69,0.00,,,0.00,406,Wunderground v.1.15,2013-02-12 21:18:00,
2013-02-12 15:19:00,44.3,34.0,29.91,SW,234,7.0,14.0,67,0.00,,,0.00,396,Wunderground v.1.15,2013-02-12 21:19:00,
2013-02-12 15:23:00,44.3,34.8,29.91,SW,215,14.0,14.0,69,0.00,,,0.00,399,Wunderground v.1.15,2013-02-12 21:23:00,
2013-02-12 15:24:00,44.2,34.3,29.91,SW,215,14.0,14.0,68,0.00,,,0.00,394,Wunderground v.1.15,2013-02-12 21:24:00,
2013-02-12 15:25:00,44.2,33.9,29.91,SW,226,9.0,14.0,67,0.00,,,0.00,394,Wunderground v.1.15,2013-02-12 21:25:00,
2013-02-12 15:26:00,44.1,34.2,29.91,SW,226,11.0,14.0,68,0.00,,,0.00,390,Wunderground v.1.15,2013-02-12 21:26:00,
2013-02-12 15:28:00,44.0,34.8,29.91,SW,225,10.0,14.0,70,0.00,,,0.00,381,Wunderground v.1.15,2013-02-12 21:28:00,
2013-02-12 15:30:00,44.0,34.1,29.91,SW,221,11.0,11.0,68,0.00,,,0.00,378,Wunderground v.1.15,2013-02-12 21:30:00,
2013-02-12 15:31:00,43.9,34.4,29.91,SW,231,10.0,15.0,69,0.00,,,0.00,376,Wunderground v.1.15,2013-02-12 21:31:00,
2013-02-12 15:32:00,43.9,34.7,29.91,SW,225,9.0,15.0,70,0.00,,,0.00,373,Wunderground v.1.15,2013-02-12 21:32:00,
2013-02-12 15:34:00,43.8,33.9,29.91,SW,236,7.0,15.0,68,0.00,,,0.00,371,Wunderground v.1.15,2013-02-12 21:34:00,
2013-02-12 15:35:00,43.9,34.4,29.91,SW,236,7.0,15.0,69,0.00,,,0.00,364,Wunderground v.1.15,2013-02-12 21:35:00,
2013-02-12 15:36:00,43.9,35.1,29.91,SW,225,8.0,15.0,71,0.00,,,0.00,362,Wunderground v.1.15,2013-02-12 21:36:00,
2013-02-12 15:38:00,44.0,34.8,29.91,WSW,242,10.0,15.0,70,0.00,,,0.00,357,Wunderground v.1.15,2013-02-12 21:38:00,
2013-02-12 15:40:00,44.0,34.8,29.91,SW,229,10.0,10.0,70,0.00,,,0.00,352,Wunderground v.1.15,2013-02-12 21:40:00,
2013-02-12 15:42:00,44.0,34.5,29.91,WSW,237,9.0,12.0,69,0.00,,,0.00,343,Wunderground v.1.15,2013-02-12 21:42:00,
2013-02-12 15:44:00,43.9,34.0,29.91,SW,225,11.0,12.0,68,0.00,,,0.00,338,Wunderground v.1.15,2013-02-12 21:44:00,
2013-02-12 15:45:00,43.8,33.9,29.91,SW,232,9.0,13.0,68,0.00,,,0.00,332,Wunderground v.1.15,2013-02-12 21:45:00,
2013-02-12 15:46:00,43.8,33.9,29.91,SW,223,8.0,13.0,68,0.00,,,0.00,329,Wunderground v.1.15,2013-02-12 21:46:00,
2013-02-12 15:48:00,43.8,35.0,29.91,WSW,238,6.0,13.0,71,0.00,,,0.00,325,Wunderground v.1.15,2013-02-12 21:48:00,
2013-02-12 15:49:00,43.8,34.6,29.91,SW,231,8.0,13.0,70,0.00,,,0.00,322,Wunderground v.1.15,2013-02-12 21:49:00,
2013-02-12 15:51:00,43.8,34.6,29.91,SW,227,9.0,11.0,70,0.00,,,0.00,318,Wunderground v.1.15,2013-02-12 21:51:00,
2013-02-12 15:52:00,43.8,34.6,29.91,SW,228,8.0,11.0,70,0.00,,,0.00,315,Wunderground v.1.15,2013-02-12 21:52:00,
2013-02-12 15:53:00,43.8,34.6,29.91,SW,227,7.0,11.0,70,0.00,,,0.00,313,Wunderground v.1.15,2013-02-12 21:53:00,
2013-02-12 15:54:00,43.8,34.3,29.91,SW,221,8.0,11.0,69,0.00,,,0.00,309,Wunderground v.1.15,2013-02-12 21:54:00,
2013-02-12 15:58:00,43.7,34.2,29.90,SW,225,9.0,11.0,69,0.00,,,0.00,297,Wunderground v.1.15,2013-02-12 21:58:00,
2013-02-12 16:00:00,43.8,35.0,29.91,SW,216,10.0,10.0,71,0.00,,,0.00,292,Wunderground v.1.15,2013-02-12 22:00:00,
2013-02-12 16:01:00,43.8,34.3,29.90,SW,234,8.0,12.0,69,0.00,,,0.00,287,Wunderground v.1.15,2013-02-12 22:01:00,
2013-02-12 16:03:00,43.8,34.3,29.90,SSW,212,7.0,12.0,69,0.00,,,0.00,281,Wunderground v.1.15,2013-02-12 22:03:00,
2013-02-12 16:04:00,43.8,34.6,29.90,SW,221,10.0,12.0,70,0.00,,,0.00,278,Wunderground v.1.15,2013-02-12 22:04:00,
2013-02-12 16:06:00,43.7,33.8,29.90,SW,228,10.0,12.0,68,0.00,,,0.00,272,Wunderground v.1.15,2013-02-12 22:06:00,
2013-02-12 16:08:00,43.6,34.5,29.90,SW,219,9.0,12.0,70,0.00,,,0.00,264,Wunderground v.1.15,2013-02-12 22:08:00,
2013-02-12 16:09:00,43.6,34.5,29.90,SW,223,8.0,12.0,70,0.00,,,0.00,262,Wunderground v.1.15,2013-02-12 22:09:00,
2013-02-12 16:10:00,43.6,34.5,29.90,SW,232,8.0,9.0,70,0.00,,,0.00,255,Wunderground v.1.15,2013-02-12 22:10:00,
2013-02-12 16:14:00,43.6,33.7,29.90,SW,226,7.0,10.0,68,0.00,,,0.00,243,Wunderground v.1.15,2013-02-12 22:14:00,
2013-02-12 16:15:00,43.6,34.1,29.90,SW,236,8.0,10.0,69,0.00,,,0.00,239,Wunderground v.1.15,2013-02-12 22:15:00,
2013-02-12 16:16:00,43.6,34.1,29.91,SW,221,9.0,11.0,69,0.00,,,0.00,236,Wunderground v.1.15,2013-02-12 22:16:00,
2013-02-12 16:20:00,43.4,33.5,29.90,SW,227,11.0,11.0,68,0.00,,,0.00,221,Wunderground v.1.15,2013-02-12 22:20:00,
2013-02-12 16:22:00,43.3,33.8,29.90,SW,236,7.0,12.0,69,0.00,,,0.00,211,Wunderground v.1.15,2013-02-12 22:22:00,
2013-02-12 16:25:00,43.3,33.4,29.90,SW,231,9.0,12.0,68,0.00,,,0.00,202,Wunderground v.1.15,2013-02-12 22:25:00,
2013-02-12 16:26:00,43.2,33.3,29.90,SW,226,10.0,12.0,68,0.00,,,0.00,199,Wunderground v.1.15,2013-02-12 22:26:00,
2013-02-12 16:28:00,43.2,34.1,29.90,SW,223,6.0,12.0,70,0.00,,,0.00,192,Wunderground v.1.15,2013-02-12 22:28:00,
2013-02-12 16:31:00,43.0,34.2,29.90,SW,227,5.0,9.0,71,0.00,,,0.00,181,Wunderground v.1.15,2013-02-12 22:31:00,
2013-02-12 16:33:00,42.8,34.4,29.90,SW,224,9.0,10.0,72,0.00,,,0.00,169,Wunderground v.1.15,2013-02-12 22:33:00,
2013-02-12 16:36:00,42.7,34.3,29.90,SW,230,6.0,10.0,72,0.00,,,0.00,162,Wunderground v.1.15,2013-02-12 22:36:00,
2013-02-12 16:37:00,42.7,34.3,29.90,SW,225,5.0,10.0,72,0.00,,,0.00,155,Wunderground v.1.15,2013-02-12 22:37:00,
2013-02-12 16:39:00,42.7,34.3,29.90,SW,234,6.0,10.0,72,0.00,,,0.00,149,Wunderground v.1.15,2013-02-12 22:39:00,
2013-02-12 16:43:00,42.5,34.1,29.90,SW,220,7.0,8.0,72,0.00,,,0.00,134,Wunderground v.1.15,2013-02-12 22:43:00,
2013-02-12 16:44:00,42.5,34.1,29.90,SW,228,7.0,8.0,72,0.00,,,0.00,130,Wunderground v.1.15,2013-02-12 22:44:00,
2013-02-12 16:45:00,42.4,34.0,29.90,SW,229,6.0,8.0,72,0.00,,,0.00,128,Wunderground v.1.15,2013-02-12 22:45:00,
2013-02-12 16:49:00,42.2,34.2,29.90,WSW,237,5.0,8.0,73,0.00,,,0.00,113,Wunderground v.1.15,2013-02-12 22:49:00,
2013-02-12 16:50:00,42.2,33.8,29.90,SW,221,6.0,6.0,72,0.00,,,0.00,109,Wunderground v.1.15,2013-02-12 22:50:00,
2013-02-12 16:51:00,42.1,33.7,29.90,SW,221,5.0,6.0,72,0.00,,,0.00,107,Wunderground v.1.15,2013-02-12 22:51:00,
2013-02-12 16:54:00,41.8,34.1,29.90,SW,223,4.0,8.0,74,0.00,,,0.00,95,Wunderground v.1.15,2013-02-12 22:54:00,
2013-02-12 16:55:00,41.7,33.7,29.90,SW,227,6.0,8.0,73,0.00,,,0.00,90,Wunderground v.1.15,2013-02-12 22:55:00,
2013-02-12 16:57:00,41.7,33.3,29.90,WSW,240,8.0,8.0,72,0.00,,,0.00,86,Wunderground v.1.15,2013-02-12 22:57:00,
2013-02-12 17:01:00,41.6,33.6,29.89,SSW,211,4.0,6.0,73,0.00,,,0.00,76,Wunderground v.1.15,2013-02-12 23:01:00,
2013-02-12 17:02:00,41.5,33.5,29.89,SSW,209,4.0,7.0,73,0.00,,,0.00,72,Wunderground v.1.15,2013-02-12 23:02:00,
2013-02-12 17:03:00,41.3,33.6,29.89,SW,214,6.0,7.0,74,0.00,,,0.00,70,Wunderground v.1.15,2013-02-12 23:03:00,
2013-02-12 17:07:00,40.9,33.2,29.89,SW,217,6.0,7.0,74,0.00,,,0.00,58,Wunderground v.1.15,2013-02-12 23:07:00,
2013-02-12 17:08:00,40.8,33.5,29.89,SW,217,5.0,7.0,75,0.00,,,0.00,56,Wunderground v.1.15,2013-02-12 23:08:00,
2013-02-12 17:09:00,40.7,33.4,29.89,SW,219,5.0,7.0,75,0.00,,,0.00,54,Wunderground v.1.15,2013-02-12 23:09:00,
2013-02-12 17:12:00,40.3,33.0,29.89,SW,216,4.0,6.0,75,0.00,,,0.00,46,Wunderground v.1.15,2013-02-12 23:12:00,
2013-02-12 17:14:00,40.1,32.8,29.89,SW,220,5.0,6.0,75,0.00,,,0.00,40,Wunderground v.1.15,2013-02-12 23:14:00,
2013-02-12 17:15:00,40.1,32.8,29.89,SW,218,4.0,6.0,75,0.00,,,0.00,40,Wunderground v.1.15,2013-02-12 23:15:00,
2013-02-12 17:18:00,39.7,32.4,29.89,SW,221,4.0,6.0,75,0.00,,,0.00,33,Wunderground v.1.15,2013-02-12 23:18:00,
2013-02-12 17:20:00,39.5,32.6,29.89,SW,217,5.0,5.0,76,0.00,,,0.00,30,Wunderground v.1.15,2013-02-12 23:20:00,
2013-02-12 17:21:00,39.3,32.4,29.89,SW,220,4.0,5.0,76,0.00,,,0.00,26,Wunderground v.1.15,2013-02-12 23:21:00,
2013-02-12 17:23:00,39.1,32.2,29.89,SSW,207,4.0,5.0,76,0.00,,,0.00,25,Wunderground v.1.15,2013-02-12 23:23:00,
2013-02-12 17:26:00,38.9,32.0,29.89,SSW,213,4.0,6.0,76,0.00,,,0.00,21,Wunderground v.1.15,2013-02-12 23:26:00,
2013-02-12 17:27:00,38.9,32.0,29.89,SSW,211,5.0,7.0,76,0.00,,,0.00,19,Wunderground v.1.15,2013-02-12 23:27:00,
2013-02-12 17:29:00,38.8,31.9,29.89,SSW,208,5.0,7.0,76,0.00,,,0.00,18,Wunderground v.1.15,2013-02-12 23:29:00,
2013-02-12 17:30:00,38.7,31.8,29.89,SSW,210,5.0,5.0,76,0.00,,,0.00,16,Wunderground v.1.15,2013-02-12 23:30:00,
2013-02-12 17:31:00,38.6,31.7,29.89,SSW,211,4.0,5.0,76,0.00,,,0.00,16,Wunderground v.1.15,2013-02-12 23:31:00,
2013-02-12 17:32:00,38.5,31.6,29.89,SSW,211,4.0,5.0,76,0.00,,,0.00,14,Wunderground v.1.15,2013-02-12 23:32:00,
2013-02-12 17:34:00,38.3,31.4,29.89,SSW,212,4.0,5.0,76,0.00,,,0.00,14,Wunderground v.1.15,2013-02-12 23:34:00,
2013-02-12 17:35:00,38.2,31.3,29.89,SSW,212,5.0,5.0,76,0.00,,,0.00,12,Wunderground v.1.15,2013-02-12 23:35:00,
2013-02-12 17:36:00,38.0,31.1,29.89,SSW,212,3.0,5.0,76,0.00,,,0.00,12,Wunderground v.1.15,2013-02-12 23:36:00,
2013-02-12 17:37:00,37.9,31.3,29.89,SSW,212,3.0,5.0,77,0.00,,,0.00,12,Wunderground v.1.15,2013-02-12 23:37:00,
2013-02-12 17:39:00,37.7,31.1,29.89,SSW,212,3.0,5.0,77,0.00,,,0.00,11,Wunderground v.1.15,2013-02-12 23:39:00,
2013-02-12 17:41:00,37.5,30.9,29.89,SSW,212,2.0,4.0,77,0.00,,,0.00,9,Wunderground v.1.15,2013-02-12 23:41:00,
2013-02-12 17:43:00,37.2,31.0,29.89,SSW,212,4.0,4.0,78,0.00,,,0.00,9,Wunderground v.1.15,2013-02-12 23:43:00,
2013-02-12 17:45:00,36.9,30.7,29.89,SSW,212,2.0,4.0,78,0.00,,,0.00,7,Wunderground v.1.15,2013-02-12 23:45:00,
2013-02-12 17:46:00,36.7,30.8,29.89,SSW,212,1.0,4.0,79,0.00,,,0.00,5,Wunderground v.1.15,2013-02-12 23:46:00,
2013-02-12 17:47:00,36.5,30.6,29.89,SSW,212,2.0,4.0,79,0.00,,,0.00,5,Wunderground v.1.15,2013-02-12 23:47:00,
2013-02-12 17:48:00,36.2,30.6,29.89,SSW,212,2.0,4.0,80,0.00,,,0.00,5,Wunderground v.1.15,2013-02-12 23:48:00,
2013-02-12 17:51:00,35.9,30.6,29.89,SSW,212,3.0,3.0,81,0.00,,,0.00,0,Wunderground v.1.15,2013-02-12 23:51:00,
2013-02-12 17:52:00,35.7,30.4,29.89,SSW,212,3.0,3.0,81,0.00,,,0.00,0,Wunderground v.1.15,2013-02-12 23:52:00,
2013-02-12 17:53:00,35.6,30.3,29.89,SSW,212,3.0,3.0,81,0.00,,,0.00,0,Wunderground v.1.15,2013-02-12 23:53:00,
2013-02-12 17:56:00,35.4,30.5,29.89,SSW,212,3.0,3.0,82,0.00,,,0.00,0,Wunderground v.1.15,2013-02-12 23:56:00,
2013-02-12 17:59:00,35.3,30.7,29.89,SSW,212,2.0,5.0,83,0.00,,,0.00,0,Wunderground v.1.15,2013-02-12 23:59:00,
2013-02-12 18:02:00,35.4,30.8,29.89,SSW,212,2.0,3.0,83,0.00,,,0.00,0,Wunderground v.1.15,2013-02-13 00:02:00,
2013-02-12 18:05:00,35.2,30.6,29.89,SSW,212,0.0,3.0,83,0.00,,,0.00,0,Wunderground v.1.15,2013-02-13 00:05:00,
2013-02-12 18:07:00,34.9,30.3,29.89,SSW,212,0.0,3.0,83,0.00,,,0.00,0,Wunderground v.1.15,2013-02-13 00:07:00,
2013-02-12 18:08:00,34.8,30.5,29.89,SSW,212,0.0,3.0,84,0.00,,,0.00,0,Wunderground v.1.15,2013-02-13 00:08:00,
2013-02-12 18:10:00,34.6,30.3,29.89,SSW,212,0.0,1.0,84,0.00,,,0.00,0,Wunderground v.1.15,2013-02-13 00:10:00,
2013-02-12 18:11:00,34.5,30.2,29.89,SSW,212,0.0,1.0,84,0.00,,,0.00,0,Wunderground v.1.15,2013-02-13 00:11:00,
2013-02-12 18:12:00,34.4,30.4,29.89,SSW,212,0.0,1.0,85,0.00,,,0.00,0,Wunderground v.1.15,2013-02-13 00:12:00,
2013-02-12 18:14:00,34.2,30.2,29.89,SSW,212,0.0,1.0,85,0.00,,,0.00,0,Wunderground v.1.15,2013-02-13 00:14:00,
2013-02-12 18:17:00,34.0,30.3,29.89,SSW,212,0.0,2.0,86,0.00,,,0.00,0,Wunderground v.1.15,2013-02-13 00:17:00,
2013-02-12 18:19:00,33.9,30.2,29.89,SSW,212,0.0,2.0,86,0.00,,,0.00,0,Wunderground v.1.15,2013-02-13 00:19:00,
2013-02-12 18:22:00,33.8,30.3,29.89,SSW,212,1.0,1.0,87,0.00,,,0.00,0,Wunderground v.1.15,2013-02-13 00:22:00,
2013-02-12 18:23:00,33.8,30.3,29.88,SSW,212,0.0,1.0,87,0.00,,,0.00,0,Wunderground v.1.15,2013-02-13 00:23:00,
2013-02-12 18:24:00,33.8,30.3,29.88,SSW,212,2.0,2.0,87,0.00,,,0.00,0,Wunderground v.1.15,2013-02-13 00:24:00,
2013-02-12 18:25:00,33.8,30.3,29.88,SSW,212,1.0,2.0,87,0.00,,,0.00,0,Wunderground v.1.15,2013-02-13 00:25:00,
2013-02-12 18:28:00,34.0,30.5,29.88,SSW,212,0.0,2.0,87,0.00,,,0.00,0,Wunderground v.1.15,2013-02-13 00:28:00,
2013-02-12 18:29:00,34.0,30.5,29.88,SSW,212,2.0,2.0,87,0.00,,,0.00,0,Wunderground v.1.15,2013-02-13 00:29:00,
2013-02-12 18:30:00,34.0,30.5,29.88,SSW,212,1.0,2.0,87,0.00,,,0.00,0,Wunderground v.1.15,2013-02-13 00:30:00,
2013-02-12 18:31:00,34.1,30.6,29.88,SSW,212,2.0,2.0,87,0.00,,,0.00,0,Wunderground v.1.15,2013-02-13 00:31:00,
2013-02-12 18:35:00,34.0,30.5,29.88,SSW,212,0.0,2.0,87,0.00,,,0.00,0,Wunderground v.1.15,2013-02-13 00:35:00,
2013-02-12 18:36:00,34.0,30.5,29.88,SSW,212,0.0,2.0,87,0.00,,,0.00,0,Wunderground v.1.15,2013-02-13 00:36:00,
2013-02-12 18:38:00,33.9,30.4,29.88,SSW,212,1.0,2.0,87,0.00,,,0.00,0,Wunderground v.1.15,2013-02-13 00:38:00,
2013-02-12 18:41:00,33.8,30.3,29.88,SSW,212,0.0,1.0,87,0.00,,,0.00,0,Wunderground v.1.15,2013-02-13 00:41:00,
2013-02-12 18:44:00,33.7,30.5,29.88,SSW,212,0.0,1.0,88,0.00,,,0.00,0,Wunderground v.1.15,2013-02-13 00:44:00,
2013-02-12 18:45:00,33.7,30.5,29.88,SSW,212,0.0,1.0,88,0.00,,,0.00,0,Wunderground v.1.15,2013-02-13 00:45:00,
2013-02-12 18:47:00,33.6,30.4,29.88,SSW,212,0.0,1.0,88,0.00,,,0.00,0,Wunderground v.1.15,2013-02-13 00:47:00,
2013-02-12 18:49:00,33.5,30.3,29.88,SSW,212,0.0,1.0,88,0.00,,,0.00,0,Wunderground v.1.15,2013-02-13 00:49:00,
2013-02-12 18:51:00,33.5,30.3,29.88,SSW,212,0.0,0.0,88,0.00,,,0.00,0,Wunderground v.1.15,2013-02-13 00:51:00,
2013-02-12 18:52:00,33.5,30.3,29.88,SSW,212,0.0,0.0,88,0.00,,,0.00,0,Wunderground v.1.15,2013-02-13 00:52:00,
2013-02-12 18:53:00,33.6,30.4,29.88,SSW,212,1.0,1.0,88,0.00,,,0.00,0,Wunderground v.1.15,2013-02-13 00:53:00,
2013-02-12 18:55:00,33.6,30.4,29.88,SSW,212,2.0,2.0,88,0.00,,,0.00,0,Wunderground v.1.15,2013-02-13 00:55:00,
2013-02-12 18:57:00,33.7,30.5,29.88,SSW,212,2.0,2.0,88,0.00,,,0.00,0,Wunderground v.1.15,2013-02-13 00:57:00,
2013-02-12 18:58:00,33.7,30.5,29.88,SSW,212,0.0,2.0,88,0.00,,,0.00,0,Wunderground v.1.15,2013-02-13 00:58:00,
2013-02-12 18:59:00,33.8,30.6,29.88,SSW,212,1.0,2.0,88,0.00,,,0.00,0,Wunderground v.1.15,2013-02-13 00:59:00,
2013-02-12 19:00:00,33.8,30.6,29.88,SSW,212,2.0,2.0,88,0.00,,,0.00,0,Wunderground v.1.15,2013-02-13 01:00:00,
2013-02-12 19:04:00,33.9,30.7,29.88,SSW,200,2.0,2.0,88,0.00,,,0.00,0,Wunderground v.1.15,2013-02-13 01:04:00,
2013-02-12 19:07:00,33.8,30.6,29.88,SSW,200,1.0,3.0,88,0.00,,,0.00,0,Wunderground v.1.15,2013-02-13 01:07:00,
2013-02-12 19:08:00,33.8,30.6,29.88,SSW,200,2.0,3.0,88,0.00,,,0.00,0,Wunderground v.1.15,2013-02-13 01:08:00,
2013-02-12 19:10:00,33.8,30.6,29.88,SSW,200,2.0,3.0,88,0.00,,,0.00,0,Wunderground v.1.15,2013-02-13 01:10:00,
2013-02-12 19:12:00,33.7,30.5,29.88,SSW,200,0.0,2.0,88,0.00,,,0.00,0,Wunderground v.1.15,2013-02-13 01:12:00,
2013-02-12 19:13:00,33.7,30.5,29.88,SSW,200,0.0,2.0,88,0.00,,,0.00,0,Wunderground v.1.15,2013-02-13 01:13:00,
2013-02-12 19:15:00,33.6,30.4,29.88,SSW,200,0.0,2.0,88,0.00,,,0.00,0,Wunderground v.1.15,2013-02-13 01:15:00,
2013-02-12 19:16:00,33.5,30.3,29.88,SSW,200,0.0,2.0,88,0.00,,,0.00,0,Wunderground v.1.15,2013-02-13 01:16:00,
2013-02-12 19:18:00,33.3,30.1,29.88,SSW,200,0.0,2.0,88,0.00,,,0.00,0,Wunderground v.1.15,2013-02-13 01:18:00,
2013-02-12 19:20:00,33.1,29.9,29.88,SSW,200,0.0,0.0,88,0.00,,,0.00,0,Wunderground v.1.15,2013-02-13 01:20:00,
2013-02-12 19:22:00,33.1,29.9,29.88,SSW,200,0.0,0.0,88,0.00,,,0.00,0,Wunderground v.1.15,2013-02-13 01:22:00,
2013-02-12 19:23:00,33.0,29.8,29.88,SSW,200,0.0,0.0,88,0.00,,,0.00,0,Wunderground v.1.15,2013-02-13 01:23:00,
2013-02-12 19:24:00,32.9,29.7,29.88,SSW,200,0.0,0.0,88,0.00,,,0.00,0,Wunderground v.1.15,2013-02-13 01:24:00,
2013-02-12 19:26:00,32.6,29.7,29.87,SSW,200,0.0,0.0,89,0.00,,,0.00,0,Wunderground v.1.15,2013-02-13 01:26:00,
2013-02-12 19:27:00,32.6,29.7,29.87,SSW,200,0.0,0.0,89,0.00,,,0.00,0,Wunderground v.1.15,2013-02-13 01:27:00,
2013-02-12 19:28:00,32.5,29.6,29.87,SSW,200,0.0,0.0,89,0.00,,,0.00,0,Wunderground v.1.15,2013-02-13 01:28:00,
2013-02-12 19:29:00,32.5,29.6,29.87,SSW,200,0.0,0.0,89,0.00,,,0.00,0,Wunderground v.1.15,2013-02-13 01:29:00,
2013-02-12 19:32:00,32.3,29.4,29.87,SSW,200,0.0,0.0,89,0.00,,,0.00,0,Wunderground v.1.15,2013-02-13 01:32:00,
2013-02-12 19:34:00,32.3,29.4,29.87,SSW,200,0.0,0.0,89,0.00,,,0.00,0,Wunderground v.1.15,2013-02-13 01:34:00,
2013-02-12 19:37:00,32.2,29.6,29.87,SSW,200,0.0,0.0,90,0.00,,,0.00,0,Wunderground v.1.15,2013-02-13 01:37:00,
2013-02-12 19:40:00,32.2,29.6,29.87,SSW,200,0.0,0.0,90,0.00,,,0.00,0,Wunderground v.1.15,2013-02-13 01:40:00,
2013-02-12 19:41:00,32.2,29.6,29.87,SSW,200,0.0,0.0,90,0.00,,,0.00,0,Wunderground v.1.15,2013-02-13 01:41:00,
2013-02-12 19:44:00,32.3,29.7,29.87,SSW,200,0.0,0.0,90,0.00,,,0.00,0,Wunderground v.1.15,2013-02-13 01:44:00,
2013-02-12 19:45:00,32.3,29.7,29.87,SSW,200,0.0,0.0,90,0.00,,,0.00,0,Wunderground v.1.15,2013-02-13 01:45:00,
2013-02-12 19:46:00,32.3,29.7,29.87,SSW,200,0.0,0.0,90,0.00,,,0.00,0,Wunderground v.1.15,2013-02-13 01:46:00,
2013-02-12 19:51:00,32.5,29.9,29.87,SSW,200,0.0,0.0,90,0.00,,,0.00,0,Wunderground v.1.15,2013-02-13 01:51:00,
2013-02-12 19:52:00,32.4,29.8,29.87,SSW,200,0.0,0.0,90,0.00,,,0.00,0,Wunderground v.1.15,2013-02-13 01:52:00,
2013-02-12 19:54:00,32.4,29.5,29.87,SSW,200,0.0,0.0,89,0.00,,,0.00,0,Wunderground v.1.15,2013-02-13 01:54:00,
2013-02-12 19:56:00,32.3,29.4,29.87,SSW,200,0.0,0.0,89,0.00,,,0.00,0,Wunderground v.1.15,2013-02-13 01:56:00,
2013-02-12 19:59:00,32.2,29.3,29.87,SSW,200,0.0,0.0,89,0.00,,,0.00,0,Wunderground v.1.15,2013-02-13 01:59:00,
2013-02-12 20:01:00,32.2,29.3,29.87,SSW,200,0.0,0.0,89,0.00,,,0.00,0,Wunderground v.1.15,2013-02-13 02:01:00,
2013-02-12 20:02:00,32.2,29.3,29.87,SSW,200,0.0,0.0,89,0.00,,,0.00,0,Wunderground v.1.15,2013-02-13 02:02:00,
2013-02-12 20:04:00,32.3,29.4,29.87,SSW,200,0.0,0.0,89,0.00,,,0.00,0,Wunderground v.1.15,2013-02-13 02:04:00,
2013-02-12 20:07:00,32.3,29.4,29.87,SSW,200,0.0,0.0,89,0.00,,,0.00,0,Wunderground v.1.15,2013-02-13 02:07:00,
2013-02-12 20:08:00,32.3,29.4,29.87,SSW,200,0.0,0.0,89,0.00,,,0.00,0,Wunderground v.1.15,2013-02-13 02:08:00,
2013-02-12 20:09:00,32.3,29.4,29.87,SSW,200,0.0,0.0,89,0.00,,,0.00,0,Wunderground v.1.15,2013-02-13 02:09:00,
2013-02-12 20:10:00,32.3,29.4,29.87,SSW,200,0.0,0.0,89,0.00,,,0.00,0,Wunderground v.1.15,2013-02-13 02:10:00,
2013-02-12 20:13:00,32.3,29.4,29.87,SSW,200,0.0,0.0,89,0.00,,,0.00,0,Wunderground v.1.15,2013-02-13 02:13:00,
2013-02-12 20:14:00,32.3,29.4,29.87,SSW,200,0.0,0.0,89,0.00,,,0.00,0,Wunderground v.1.15,2013-02-13 02:14:00,
2013-02-12 20:15:00,32.3,29.1,29.87,SSW,200,0.0,0.0,88,0.00,,,0.00,0,Wunderground v.1.15,2013-02-13 02:15:00,
2013-02-12 20:16:00,32.4,29.2,29.87,SSW,200,0.0,0.0,88,0.00,,,0.00,0,Wunderground v.1.15,2013-02-13 02:16:00,
2013-02-12 20:18:00,32.4,29.2,29.87,SSW,200,0.0,0.0,88,0.00,,,0.00,0,Wunderground v.1.15,2013-02-13 02:18:00,
2013-02-12 20:19:00,32.4,29.2,29.87,SSW,200,0.0,0.0,88,0.00,,,0.00,0,Wunderground v.1.15,2013-02-13 02:19:00,
2013-02-12 20:20:00,32.4,29.2,29.87,SSW,200,0.0,0.0,88,0.00,,,0.00,0,Wunderground v.1.15,2013-02-13 02:20:00,
2013-02-12 20:24:00,32.3,29.1,29.87,SSW,200,0.0,0.0,88,0.00,,,0.00,0,Wunderground v.1.15,2013-02-13 02:24:00,
2013-02-12 20:25:00,32.3,29.1,29.87,SSW,200,0.0,0.0,88,0.00,,,0.00,0,Wunderground v.1.15,2013-02-13 02:25:00,
2013-02-12 20:26:00,32.3,29.1,29.87,SSW,200,0.0,0.0,88,0.00,,,0.00,0,Wunderground v.1.15,2013-02-13 02:26:00,
2013-02-12 20:29:00,32.3,29.1,29.87,SSW,200,1.0,1.0,88,0.00,,,0.00,0,Wunderground v.1.15,2013-02-13 02:29:00,
2013-02-12 20:30:00,32.4,29.2,29.87,SSW,200,0.0,0.0,88,0.00,,,0.00,0,Wunderground v.1.15,2013-02-13 02:30:00,
2013-02-12 20:31:00,32.4,29.2,29.87,SSW,200,0.0,0.0,88,0.00,,,0.00,0,Wunderground v.1.15,2013-02-13 02:31:00,
2013-02-12 20:35:00,32.5,29.3,29.87,SSW,200,1.0,1.0,88,0.00,,,0.00,0,Wunderground v.1.15,2013-02-13 02:35:00,
2013-02-12 20:37:00,32.5,29.3,29.87,SSW,200,1.0,1.0,88,0.00,,,0.00,0,Wunderground v.1.15,2013-02-13 02:37:00,
2013-02-12 20:40:00,32.5,29.3,29.87,SSW,200,1.0,2.0,88,0.00,,,0.00,0,Wunderground v.1.15,2013-02-13 02:40:00,
2013-02-12 20:42:00,32.5,29.3,29.87,SSW,203,1.0,2.0,88,0.00,,,0.00,0,Wunderground v.1.15,2013-02-13 02:42:00,
2013-02-12 20:43:00,32.6,29.4,29.87,SSW,203,1.0,2.0,88,0.00,,,0.00,0,Wunderground v.1.15,2013-02-13 02:43:00,
2013-02-12 20:45:00,32.7,29.5,29.87,SSW,206,2.0,2.0,88,0.00,,,0.00,0,Wunderground v.1.15,2013-02-13 02:45:00,
2013-02-12 20:46:00,32.9,29.7,29.87,SSW,206,3.0,3.0,88,0.00,,,0.00,0,Wunderground v.1.15,2013-02-13 02:46:00,
2013-02-12 20:48:00,33.0,29.8,29.87,SSW,206,1.0,3.0,88,0.00,,,0.00,0,Wunderground v.1.15,2013-02-13 02:48:00,
2013-02-12 20:50:00,33.0,29.8,29.87,SSW,206,0.0,1.0,88,0.00,,,0.00,0,Wunderground v.1.15,2013-02-13 02:50:00,
2013-02-12 20:51:00,33.0,29.8,29.87,SSW,206,0.0,1.0,88,0.00,,,0.00,0,Wunderground v.1.15,2013-02-13 02:51:00,
2013-02-12 20:54:00,32.8,29.6,29.87,SSW,206,0.0,1.0,88,0.00,,,0.00,0,Wunderground v.1.15,2013-02-13 02:54:00,
2013-02-12 20:56:00,32.7,29.5,29.87,SSW,207,1.0,1.0,88,0.00,,,0.00,0,Wunderground v.1.15,2013-02-13 02:56:00,
2013-02-12 20:57:00,32.7,29.5,29.87,SSW,207,1.0,1.0,88,0.00,,,0.00,0,Wunderground v.1.15,2013-02-13 02:57:00,
2013-02-12 21:00:00,32.7,29.5,29.88,West,277,4.0,4.0,88,0.00,,,0.00,0,Wunderground v.1.15,2013-02-13 03:00:00,
2013-02-12 21:03:00,32.7,29.5,29.88,WNW,290,5.0,7.0,88,0.00,,,0.00,0,Wunderground v.1.15,2013-02-13 03:03:00,
2013-02-12 21:05:00,32.8,29.9,29.88,WNW,282,3.0,7.0,89,0.00,,,0.00,0,Wunderground v.1.15,2013-02-13 03:05:00,
2013-02-12 21:06:00,32.8,29.9,29.88,WNW,282,4.0,7.0,89,0.00,,,0.00,0,Wunderground v.1.15,2013-02-13 03:06:00,
2013-02-12 21:08:00,33.0,29.8,29.87,WNW,282,4.0,7.0,88,0.00,,,0.00,0,Wunderground v.1.15,2013-02-13 03:08:00,
2013-02-12 21:10:00,33.1,29.9,29.87,WNW,282,3.0,5.0,88,0.00,,,0.00,0,Wunderground v.1.15,2013-02-13 03:10:00,
2013-02-12 21:11:00,33.1,29.9,29.87,WNW,282,4.0,5.0,88,0.00,,,0.00,0,Wunderground v.1.15,2013-02-13 03:11:00,
2013-02-12 21:12:00,33.1,29.9,29.87,WNW,282,3.0,5.0,88,0.00,,,0.00,0,Wunderground v.1.15,2013-02-13 03:12:00,
2013-02-12 21:14:00,33.0,29.8,29.87,WNW,282,3.0,5.0,88,0.00,,,0.00,0,Wunderground v.1.15,2013-02-13 03:14:00,
2013-02-12 21:15:00,32.9,29.7,29.88,WNW,282,3.0,5.0,88,0.00,,,0.00,0,Wunderground v.1.15,2013-02-13 03:15:00,
2013-02-12 21:16:00,32.9,29.7,29.87,WNW,282,3.0,5.0,88,0.00,,,0.00,0,Wunderground v.1.15,2013-02-13 03:16:00,
2013-02-12 21:17:00,32.8,29.6,29.87,WNW,282,2.0,5.0,88,0.00,,,0.00,0,Wunderground v.1.15,2013-02-13 03:17:00,
2013-02-12 21:21:00,32.5,29.6,29.88,WNW,282,2.0,3.0,89,0.00,,,0.00,0,Wunderground v.1.15,2013-02-13 03:21:00,
2013-02-12 21:22:00,32.5,29.6,29.88,WNW,282,2.0,3.0,89,0.00,,,0.00,0,Wunderground v.1.15,2013-02-13 03:22:00,
2013-02-12 21:23:00,32.4,29.5,29.88,WNW,282,2.0,3.0,89,0.00,,,0.00,0,Wunderground v.1.15,2013-02-13 03:23:00,
2013-02-12 21:26:00,32.3,29.4,29.88,WNW,282,2.0,3.0,89,0.00,,,0.00,0,Wunderground v.1.15,2013-02-13 03:26:00,
2013-02-12 21:27:00,32.3,29.4,29.88,WNW,282,1.0,3.0,89,0.00,,,0.00,0,Wunderground v.1.15,2013-02-13 03:27:00,
2013-02-12 21:28:00,32.2,29.3,29.88,WNW,282,2.0,3.0,89,0.00,,,0.00,0,Wunderground v.1.15,2013-02-13 03:28:00,
2013-02-12 21:29:00,32.2,29.3,29.88,WNW,282,1.0,3.0,89,0.00,,,0.00,0,Wunderground v.1.15,2013-02-13 03:29:00,
2013-02-12 21:31:00,32.2,29.3,29.88,WNW,282,2.0,2.0,89,0.00,,,0.00,0,Wunderground v.1.15,2013-02-13 03:31:00,
2013-02-12 21:33:00,32.2,29.3,29.88,WNW,288,3.0,3.0,89,0.00,,,0.00,0,Wunderground v.1.15,2013-02-13 03:33:00,
2013-02-12 21:34:00,32.1,29.2,29.88,WNW,294,1.0,3.0,89,0.00,,,0.00,0,Wunderground v.1.15,2013-02-13 03:34:00,
2013-02-12 21:35:00,32.0,29.1,29.88,WNW,294,0.0,3.0,89,0.00,,,0.00,0,Wunderground v.1.15,2013-02-13 03:35:00,
2013-02-12 21:36:00,32.0,29.1,29.88,WNW,294,0.0,3.0,89,0.00,,,0.00,0,Wunderground v.1.15,2013-02-13 03:36:00,
2013-02-12 21:39:00,32.0,28.8,29.88,WNW,301,2.0,4.0,88,0.00,,,0.00,0,Wunderground v.1.15,2013-02-13 03:39:00,
2013-02-12 21:41:00,31.9,28.8,29.88,WNW,301,3.0,3.0,88,0.00,,,0.00,0,Wunderground v.1.15,2013-02-13 03:41:00,
2013-02-12 21:42:00,31.8,28.7,29.88,WNW,301,2.0,3.0,88,0.00,,,0.00,0,Wunderground v.1.15,2013-02-13 03:42:00,
2013-02-12 21:45:00,31.7,28.6,29.88,WNW,301,2.0,3.0,88,0.00,,,0.00,0,Wunderground v.1.15,2013-02-13 03:45:00,
2013-02-12 21:47:00,31.6,28.5,29.88,WNW,301,2.0,3.0,88,0.00,,,0.00,0,Wunderground v.1.15,2013-02-13 03:47:00,
2013-02-12 21:49:00,31.5,28.4,29.88,WNW,301,2.0,3.0,88,0.00,,,0.00,0,Wunderground v.1.15,2013-02-13 03:49:00,
2013-02-12 21:50:00,31.5,28.4,29.88,WNW,301,2.0,3.0,88,0.00,,,0.00,0,Wunderground v.1.15,2013-02-13 03:50:00,
2013-02-12 21:51:00,31.4,28.3,29.88,WNW,301,3.0,3.0,88,0.00,,,0.00,0,Wunderground v.1.15,2013-02-13 03:51:00,
2013-02-12 21:54:00,31.4,28.5,29.87,WNW,301,2.0,3.0,89,0.00,,,0.00,0,Wunderground v.1.15,2013-02-13 03:54:00,
2013-02-12 21:56:00,31.3,28.4,29.88,WNW,301,2.0,3.0,89,0.00,,,0.00,0,Wunderground v.1.15,2013-02-13 03:56:00,
2013-02-12 21:58:00,31.1,28.2,29.88,WNW,301,2.0,3.0,89,0.00,,,0.00,0,Wunderground v.1.15,2013-02-13 03:58:00,
2013-02-12 21:59:00,31.1,28.2,29.88,WNW,301,3.0,3.0,89,0.00,,,0.00,0,Wunderground v.1.15,2013-02-13 03:59:00,
2013-02-12 22:01:00,31.0,28.1,29.88,WNW,301,2.0,3.0,89,0.00,,,0.00,0,Wunderground v.1.15,2013-02-13 04:01:00,
2013-02-12 22:03:00,30.9,28.3,29.88,WNW,301,3.0,3.0,90,0.00,,,0.00,0,Wunderground v.1.15,2013-02-13 04:03:00,
2013-02-12 22:05:00,30.9,28.3,29.88,WNW,301,3.0,3.0,90,0.00,,,0.00,0,Wunderground v.1.15,2013-02-13 04:05:00,
2013-02-12 22:06:00,30.8,28.2,29.88,WNW,301,2.0,3.0,90,0.00,,,0.00,0,Wunderground v.1.15,2013-02-13 04:06:00,
2013-02-12 22:08:00,30.8,28.2,29.88,WNW,301,3.0,3.0,90,0.00,,,0.00,0,Wunderground v.1.15,2013-02-13 04:08:00,
2013-02-12 22:11:00,31.0,28.7,29.88,WNW,301,4.0,4.0,91,0.00,,,0.00,0,Wunderground v.1.15,2013-02-13 04:11:00,
2013-02-12 22:12:00,31.0,28.7,29.88,WNW,301,4.0,4.0,91,0.00,,,0.00,0,Wunderground v.1.15,2013-02-13 04:12:00,
2013-02-12 22:13:00,31.1,28.8,29.87,WNW,301,4.0,5.0,91,0.00,,,0.00,0,Wunderground v.1.15,2013-02-13 04:13:00,
2013-02-12 22:15:00,31.2,28.9,29.88,WNW,301,4.0,5.0,91,0.00,,,0.00,0,Wunderground v.1.15,2013-02-13 04:15:00,
2013-02-12 22:18:00,31.4,29.1,29.88,WNW,300,4.0,6.0,91,0.00,,,0.00,0,Wunderground v.1.15,2013-02-13 04:18:00,
2013-02-12 22:19:00,31.5,28.9,29.88,WNW,300,5.0,6.0,90,0.00,,,0.00,0,Wunderground v.1.15,2013-02-13 04:19:00,
2013-02-12 22:20:00,31.6,29.0,29.88,WNW,300,4.0,4.0,90,0.00,,,0.00,0,Wunderground v.1.15,2013-02-13 04:20:00,
2013-02-12 22:22:00,31.7,29.1,29.88,WNW,301,5.0,5.0,90,0.00,,,0.00,0,Wunderground v.1.15,2013-02-13 04:22:00,
2013-02-12 22:24:00,31.7,29.1,29.88,WNW,302,4.0,5.0,90,0.00,,,0.00,0,Wunderground v.1.15,2013-02-13 04:24:00,
2013-02-12 22:26:00,31.9,29.3,29.88,WNW,302,5.0,5.0,90,0.00,,,0.00,0,Wunderground v.1.15,2013-02-13 04:26:00,
2013-02-12 22:27:00,31.9,29.0,29.88,WNW,302,4.0,5.0,89,0.00,,,0.00,0,Wunderground v.1.15,2013-02-13 04:27:00,
2013-02-12 22:29:00,31.9,29.0,29.88,WNW,302,4.0,5.0,89,0.00,,,0.00,0,Wunderground v.1.15,2013-02-13 04:29:00,
2013-02-12 22:30:00,31.9,29.0,29.87,WNW,302,4.0,4.0,89,0.00,,,0.00,0,Wunderground v.1.15,2013-02-13 04:30:00,
2013-02-12 22:34:00,31.9,29.0,29.88,WNW,302,3.0,4.0,89,0.00,,,0.00,0,Wunderground v.1.15,2013-02-13 04:34:00,
2013-02-12 22:35:00,31.9,29.0,29.88,WNW,302,4.0,4.0,89,0.00,,,0.00,0,Wunderground v.1.15,2013-02-13 04:35:00,
2013-02-12 22:40:00,31.8,28.9,29.88,WNW,302,3.0,4.0,89,0.00,,,0.00,0,Wunderground v.1.15,2013-02-13 04:40:00,
2013-02-12 22:43:00,31.7,28.6,29.87,WNW,302,3.0,4.0,88,0.00,,,0.00,0,Wunderground v.1.15,2013-02-13 04:43:00,
2013-02-12 22:45:00,31.7,28.6,29.87,WNW,302,2.0,4.0,88,0.00,,,0.00,0,Wunderground v.1.15,2013-02-13 04:45:00,
2013-02-12 22:46:00,31.7,28.6,29.87,WNW,302,3.0,4.0,88,0.00,,,0.00,0,Wunderground v.1.15,2013-02-13 04:46:00,
2013-02-12 22:47:00,31.7,28.6,29.87,WNW,302,3.0,4.0,88,0.00,,,0.00,0,Wunderground v.1.15,2013-02-13 04:47:00,
2013-02-12 22:49:00,31.6,28.5,29.87,WNW,302,3.0,4.0,88,0.00,,,0.00,0,Wunderground v.1.15,2013-02-13 04:49:00,
2013-02-12 22:52:00,31.5,28.4,29.87,WNW,302,3.0,3.0,88,0.00,,,0.00,0,Wunderground v.1.15,2013-02-13 04:52:00,
2013-02-12 22:54:00,31.5,28.6,29.87,WNW,302,3.0,3.0,89,0.00,,,0.00,0,Wunderground v.1.15,2013-02-13 04:54:00,
2013-02-12 22:55:00,31.4,28.5,29.87,WNW,302,3.0,4.0,89,0.00,,,0.00,0,Wunderground v.1.15,2013-02-13 04:55:00,
2013-02-12 22:57:00,31.4,28.5,29.87,WNW,302,3.0,4.0,89,0.00,,,0.00,0,Wunderground v.1.15,2013-02-13 04:57:00,
2013-02-12 22:59:00,31.4,28.5,29.87,WNW,302,3.0,4.0,89,0.00,,,0.00,0,Wunderground v.1.15,2013-02-13 04:59:00,
2013-02-12 23:00:00,31.4,28.5,29.87,WNW,302,3.0,3.0,89,0.00,,,0.00,0,Wunderground v.1.15,2013-02-13 05:00:00,
2013-02-12 23:01:00,31.4,28.5,29.87,WNW,302,3.0,3.0,89,0.00,,,0.00,0,Wunderground v.1.15,2013-02-13 05:01:00,
2013-02-12 23:02:00,31.4,28.5,29.87,WNW,302,3.0,3.0,89,0.00,,,0.00,0,Wunderground v.1.15,2013-02-13 05:02:00,
2013-02-12 23:06:00,31.2,28.3,29.87,WNW,302,3.0,4.0,89,0.00,,,0.00,0,Wunderground v.1.15,2013-02-13 05:06:00,
2013-02-12 23:08:00,31.2,28.3,29.87,WNW,302,3.0,4.0,89,0.00,,,0.00,0,Wunderground v.1.15,2013-02-13 05:08:00,
2013-02-12 23:11:00,31.1,28.2,29.87,WNW,302,2.0,3.0,89,0.00,,,0.00,0,Wunderground v.1.15,2013-02-13 05:11:00,
2013-02-12 23:12:00,31.0,28.1,29.87,WNW,302,3.0,3.0,89,0.00,,,0.00,0,Wunderground v.1.15,2013-02-13 05:12:00,
2013-02-12 23:15:00,30.8,27.9,29.87,WNW,302,2.0,3.0,89,0.00,,,0.00,0,Wunderground v.1.15,2013-02-13 05:15:00,
2013-02-12 23:16:00,30.7,27.8,29.86,WNW,302,2.0,3.0,89,0.00,,,0.00,0,Wunderground v.1.15,2013-02-13 05:16:00,
2013-02-12 23:17:00,30.7,27.8,29.86,WNW,302,2.0,3.0,89,0.00,,,0.00,0,Wunderground v.1.15,2013-02-13 05:17:00,
2013-02-12 23:22:00,30.7,28.1,29.86,WNW,302,1.0,2.0,90,0.00,,,0.00,0,Wunderground v.1.15,2013-02-13 05:22:00,
2013-02-12 23:23:00,30.7,28.1,29.86,WNW,302,1.0,2.0,90,0.00,,,0.00,0,Wunderground v.1.15,2013-02-13 05:23:00,
2013-02-12 23:28:00,30.6,28.0,29.86,WNW,302,2.0,2.0,90,0.00,,,0.00,0,Wunderground v.1.15,2013-02-13 05:28:00,
2013-02-12 23:29:00,30.6,28.0,29.86,WNW,302,1.0,2.0,90,0.00,,,0.00,0,Wunderground v.1.15,2013-02-13 05:29:00,
2013-02-12 23:33:00,30.5,27.9,29.86,WNW,302,3.0,3.0,90,0.00,,,0.00,0,Wunderground v.1.15,2013-02-13 05:33:00,
2013-02-12 23:35:00,30.4,27.8,29.86,WNW,302,3.0,3.0,90,0.00,,,0.00,0,Wunderground v.1.15,2013-02-13 05:35:00,
2013-02-12 23:36:00,30.5,27.9,29.86,WNW,302,3.0,4.0,90,0.00,,,0.00,0,Wunderground v.1.15,2013-02-13 05:36:00,
2013-02-12 23:38:00,30.5,27.9,29.86,WNW,302,2.0,4.0,90,0.00,,,0.00,0,Wunderground v.1.15,2013-02-13 05:38:00,
2013-02-12 23:40:00,30.5,27.9,29.86,WNW,302,2.0,3.0,90,0.00,,,0.00,0,Wunderground v.1.15,2013-02-13 05:40:00,
2013-02-12 23:41:00,30.5,27.9,29.86,WNW,302,2.0,3.0,90,0.00,,,0.00,0,Wunderground v.1.15,2013-02-13 05:41:00,
2013-02-12 23:44:00,30.5,27.9,29.86,WNW,302,1.0,3.0,90,0.00,,,0.00,0,Wunderground v.1.15,2013-02-13 05:44:00,
2013-02-12 23:45:00,30.4,27.8,29.86,WNW,302,1.0,3.0,90,0.00,,,0.00,0,Wunderground v.1.15,2013-02-13 05:45:00,
2013-02-12 23:46:00,30.4,27.8,29.86,WNW,302,2.0,3.0,90,0.00,,,0.00,0,Wunderground v.1.15,2013-02-13 05:46:00,
2013-02-12 23:48:00,30.4,28.1,29.86,WNW,302,2.0,3.0,91,0.00,,,0.00,0,Wunderground v.1.15,2013-02-13 05:48:00,
2013-02-12 23:50:00,30.4,28.1,29.86,WNW,302,2.0,2.0,91,0.00,,,0.00,0,Wunderground v.1.15,2013-02-13 05:50:00,
2013-02-12 23:52:00,30.4,28.1,29.86,WNW,302,1.0,2.0,91,0.00,,,0.00,0,Wunderground v.1.15,2013-02-13 05:52:00,
2013-02-12 23:53:00,30.4,28.1,29.86,WNW,302,2.0,2.0,91,0.00,,,0.00,0,Wunderground v.1.15,2013-02-13 05:53:00,
2013-02-12 23:54:00,30.4,28.1,29.86,WNW,302,2.0,2.0,91,0.00,,,0.00,0,Wunderground v.1.15,2013-02-13 05:54:00,
2013-02-12 23:56:00,30.3,28.0,29.86,WNW,302,2.0,2.0,91,0.00,,,0.00,0,Wunderground v.1.15,2013-02-13 05:56:00,
2013-02-12 23:59:00,30.2,27.9,29.86,WNW,302,2.0,3.0,91,0.00,,,0.00,0,Wunderground v.1.15,2013-02-13 05:59:00,